GEFSNGP_prec_meanprecacc_048.txt.gz
Total_Precipitation_Accumulation
0.00 0.00 0.00 0.00 0.00 0.00 0.03 0.10 0.19 0.15 0.10 0.12 0.17 0.19 0.24 0.24 0.21 0.17 0.16 0.14 0.15 0.18 0.21 0.25 0.24 0.21 0.19 0.17 0.17 0.23 0.27 0.34 0.43 0.38 0.31 0.28 0.24 0.18 0.15 0.18 0.21 0.30 0.36 0.40
0.00 0.00 0.00 0.00 0.00 0.01 0.02 0.03 0.08 0.11 0.14 0.17 0.18 0.19 0.20 0.19 0.17 0.16 0.16 0.13 0.12 0.14 0.17 0.19 0.15 0.11 0.08 0.08 0.11 0.17 0.23 0.27 0.34 0.33 0.26 0.20 0.15 0.10 0.08 0.12 0.17 0.22 0.23 0.26
0.00 0.00 0.01 0.01 0.01 0.01 0.01 0.02 0.04 0.12 0.20 0.19 0.20 0.19 0.18 0.16 0.14 0.12 0.10 0.08 0.07 0.06 0.06 0.05 0.05 0.04 0.05 0.05 0.06 0.14 0.23 0.30 0.35 0.39 0.38 0.26 0.13 0.09 0.09 0.13 0.18 0.19 0.17 0.14
0.00 0.01 0.04 0.03 0.00 0.01 0.02 0.02 0.03 0.06 0.09 0.10 0.09 0.07 0.06 0.06 0.05 0.03 0.03 0.03 0.03 0.02 0.02 0.02 0.02 0.04 0.07 0.06 0.07 0.12 0.21 0.28 0.30 0.33 0.34 0.28 0.20 0.16 0.16 0.19 0.24 0.25 0.19 0.14
0.01 0.01 0.01 0.01 0.01 0.02 0.04 0.04 0.03 0.03 0.04 0.04 0.04 0.04 0.06 0.03 0.02 0.01 0.01 0.01 0.01 0.01 0.01 0.02 0.02 0.05 0.10 0.11 0.14 0.18 0.26 0.34 0.33 0.33 0.31 0.24 0.20 0.20 0.20 0.22 0.25 0.28 0.22 0.17
0.01 0.01 0.03 0.02 0.04 0.06 0.04 0.11 0.07 0.05 0.04 0.03 0.02 0.08 0.10 0.04 0.01 0.01 0.01 0.01 0.02 0.02 0.02 0.04 0.06 0.09 0.14 0.19 0.23 0.29 0.37 0.42 0.39 0.39 0.37 0.32 0.31 0.29 0.26 0.26 0.25 0.25 0.24 0.24
0.01 0.03 0.03 0.02 0.04 0.04 0.08 0.15 0.04 0.02 0.01 0.01 0.02 0.05 0.05 0.02 0.01 0.01 0.01 0.02 0.03 0.04 0.04 0.06 0.08 0.11 0.18 0.23 0.25 0.28 0.30 0.36 0.40 0.43 0.45 0.49 0.49 0.42 0.36 0.32 0.30 0.28 0.27 0.26
0.03 0.06 0.08 0.02 0.01 0.01 0.04 0.02 0.01 0.01 0.01 0.02 0.02 0.01 0.01 0.01 0.01 0.01 0.02 0.03 0.04 0.06 0.05 0.06 0.09 0.13 0.18 0.20 0.22 0.24 0.27 0.34 0.40 0.43 0.43 0.52 0.65 0.61 0.58 0.51 0.41 0.38 0.36 0.32
0.02 0.04 0.02 0.00 0.00 0.01 0.01 0.01 0.02 0.02 0.01 0.02 0.02 0.02 0.02 0.02 0.02 0.02 0.02 0.03 0.05 0.08 0.10 0.12 0.15 0.22 0.29 0.26 0.26 0.29 0.33 0.39 0.42 0.42 0.45 0.54 0.61 0.64 0.64 0.58 0.49 0.44 0.43 0.42
0.03 0.01 0.00 0.01 0.01 0.01 0.01 0.01 0.01 0.01 0.01 0.02 0.03 0.03 0.03 0.03 0.03 0.04 0.04 0.06 0.09 0.13 0.19 0.26 0.29 0.33 0.38 0.33 0.32 0.33 0.35 0.39 0.42 0.44 0.46 0.50 0.59 0.61 0.59 0.54 0.52 0.50 0.46 0.43
0.03 0.02 0.01 0.01 0.02 0.01 0.00 0.01 0.01 0.01 0.02 0.02 0.03 0.04 0.04 0.04 0.05 0.05 0.05 0.07 0.12 0.19 0.26 0.32 0.39 0.44 0.46 0.45 0.45 0.44 0.41 0.40 0.42 0.44 0.46 0.53 0.60 0.66 0.65 0.59 0.52 0.55 0.52 0.44
0.04 0.04 0.05 0.05 0.03 0.01 0.01 0.01 0.01 0.02 0.02 0.03 0.04 0.05 0.04 0.05 0.05 0.05 0.06 0.07 0.11 0.16 0.23 0.31 0.39 0.46 0.48 0.53 0.58 0.61 0.61 0.54 0.53 0.54 0.56 0.61 0.63 0.57 0.51 0.51 0.43 0.41 0.43 0.41
0.05 0.04 0.04 0.03 0.02 0.01 0.02 0.01 0.02 0.02 0.03 0.03 0.04 0.04 0.05 0.05 0.05 0.05 0.06 0.08 0.12 0.16 0.21 0.26 0.32 0.42 0.49 0.56 0.60 0.62 0.65 0.66 0.61 0.61 0.61 0.63 0.64 0.60 0.51 0.43 0.42 0.38 0.34 0.34
0.02 0.02 0.01 0.01 0.01 0.01 0.01 0.01 0.02 0.03 0.04 0.04 0.05 0.06 0.06 0.07 0.07 0.08 0.08 0.10 0.12 0.16 0.20 0.25 0.31 0.36 0.43 0.51 0.60 0.63 0.62 0.61 0.58 0.56 0.58 0.58 0.57 0.57 0.59 0.53 0.44 0.38 0.32 0.30
0.01 0.01 0.02 0.01 0.01 0.02 0.03 0.04 0.04 0.05 0.05 0.04 0.04 0.05 0.06 0.07 0.07 0.08 0.09 0.10 0.13 0.15 0.17 0.23 0.33 0.39 0.44 0.50 0.56 0.61 0.62 0.60 0.58 0.51 0.52 0.56 0.56 0.54 0.53 0.55 0.49 0.39 0.31 0.30
0.02 0.02 0.03 0.03 0.04 0.05 0.06 0.06 0.06 0.06 0.06 0.06 0.06 0.07 0.07 0.08 0.08 0.09 0.10 0.13 0.16 0.18 0.20 0.26 0.30 0.37 0.50 0.57 0.61 0.61 0.62 0.62 0.64 0.60 0.52 0.52 0.56 0.55 0.51 0.52 0.49 0.40 0.31 0.27
0.05 0.06 0.07 0.07 0.08 0.08 0.08 0.09 0.09 0.09 0.09 0.09 0.08 0.08 0.09 0.10 0.11 0.12 0.13 0.15 0.18 0.19 0.22 0.28 0.31 0.37 0.49 0.61 0.67 0.66 0.61 0.57 0.58 0.60 0.55 0.47 0.46 0.48 0.46 0.45 0.39 0.33 0.27 0.23
0.09 0.11 0.13 0.13 0.14 0.13 0.12 0.12 0.13 0.14 0.14 0.14 0.12 0.13 0.14 0.17 0.19 0.19 0.19 0.20 0.22 0.21 0.21 0.24 0.31 0.40 0.49 0.57 0.62 0.63 0.63 0.59 0.53 0.51 0.52 0.48 0.43 0.42 0.41 0.38 0.32 0.27 0.24 0.23
0.09 0.12 0.14 0.16 0.18 0.19 0.21 0.23 0.24 0.24 0.23 0.23 0.23 0.24 0.24 0.25 0.26 0.28 0.27 0.30 0.34 0.35 0.31 0.32 0.34 0.38 0.44 0.53 0.61 0.61 0.62 0.62 0.56 0.46 0.45 0.47 0.41 0.39 0.34 0.32 0.28 0.23 0.20 0.19
0.14 0.18 0.22 0.25 0.28 0.32 0.35 0.35 0.36 0.36 0.35 0.34 0.34 0.34 0.33 0.32 0.34 0.36 0.38 0.40 0.44 0.49 0.47 0.44 0.38 0.33 0.39 0.54 0.64 0.61 0.56 0.57 0.54 0.43 0.41 0.42 0.36 0.33 0.26 0.25 0.22 0.18 0.16 0.13
0.20 0.24 0.28 0.31 0.33 0.36 0.39 0.41 0.42 0.40 0.38 0.37 0.38 0.38 0.38 0.36 0.37 0.44 0.54 0.54 0.48 0.52 0.51 0.45 0.38 0.35 0.38 0.54 0.61 0.60 0.53 0.51 0.49 0.41 0.36 0.35 0.32 0.27 0.21 0.21 0.18 0.14 0.12 0.09
0.19 0.22 0.26 0.27 0.28 0.28 0.27 0.29 0.30 0.30 0.29 0.29 0.31 0.35 0.40 0.41 0.39 0.44 0.50 0.56 0.57 0.56 0.50 0.46 0.42 0.38 0.38 0.48 0.53 0.57 0.59 0.51 0.47 0.39 0.32 0.27 0.25 0.20 0.16 0.16 0.14 0.10 0.08 0.07
0.13 0.14 0.15 0.15 0.16 0.15 0.12 0.13 0.18 0.23 0.25 0.26 0.30 0.38 0.50 0.52 0.50 0.56 0.54 0.49 0.56 0.52 0.47 0.43 0.41 0.40 0.37 0.39 0.45 0.49 0.55 0.51 0.47 0.38 0.29 0.23 0.18 0.14 0.11 0.12 0.10 0.07 0.05 0.04
0.03 0.04 0.05 0.06 0.07 0.10 0.11 0.13 0.16 0.18 0.22 0.25 0.27 0.37 0.56 0.66 0.61 0.55 0.52 0.49 0.46 0.40 0.36 0.34 0.30 0.28 0.28 0.29 0.35 0.41 0.47 0.47 0.46 0.38 0.30 0.21 0.13 0.10 0.10 0.09 0.07 0.05 0.03 0.02
0.02 0.02 0.03 0.06 0.12 0.19 0.24 0.25 0.22 0.22 0.27 0.29 0.28 0.36 0.51 0.63 0.70 0.62 0.50 0.43 0.39 0.32 0.30 0.26 0.23 0.24 0.23 0.22 0.27 0.36 0.44 0.46 0.45 0.38 0.28 0.18 0.12 0.09 0.09 0.08 0.06 0.05 0.03 0.02
0.03 0.04 0.07 0.11 0.19 0.29 0.36 0.37 0.38 0.39 0.46 0.51 0.48 0.51 0.57 0.57 0.59 0.57 0.47 0.37 0.33 0.32 0.29 0.27 0.23 0.20 0.19 0.21 0.25 0.35 0.43 0.43 0.38 0.32 0.21 0.14 0.11 0.10 0.08 0.06 0.05 0.04 0.02 0.02
0.06 0.09 0.14 0.18 0.24 0.34 0.40 0.47 0.53 0.58 0.66 0.75 0.80 0.72 0.69 0.66 0.61 0.51 0.42 0.33 0.30 0.30 0.28 0.25 0.23 0.20 0.20 0.23 0.27 0.34 0.36 0.35 0.31 0.23 0.17 0.14 0.11 0.09 0.08 0.05 0.04 0.03 0.02 0.01

GEFSNGP_prec_meanprecacc_054.txt.gz
Total_Precipitation_Accumulation
0.00 0.00 0.00 0.00 0.00 0.00 0.03 0.11 0.23 0.18 0.15 0.18 0.19 0.19 0.24 0.24 0.21 0.17 0.16 0.14 0.15 0.18 0.21 0.25 0.25 0.22 0.19 0.17 0.17 0.23 0.27 0.34 0.44 0.38 0.32 0.28 0.25 0.19 0.16 0.20 0.25 0.36 0.43 0.48
0.00 0.01 0.00 0.00 0.01 0.01 0.02 0.03 0.08 0.12 0.17 0.18 0.18 0.19 0.20 0.19 0.17 0.16 0.16 0.13 0.12 0.14 0.17 0.19 0.16 0.11 0.08 0.08 0.11 0.17 0.23 0.28 0.35 0.34 0.27 0.20 0.16 0.10 0.09 0.14 0.19 0.26 0.29 0.33
0.00 0.01 0.02 0.05 0.03 0.01 0.01 0.02 0.04 0.13 0.21 0.19 0.20 0.19 0.18 0.16 0.14 0.12 0.10 0.08 0.07 0.06 0.06 0.05 0.05 0.04 0.05 0.05 0.06 0.14 0.23 0.30 0.35 0.39 0.38 0.27 0.14 0.10 0.11 0.15 0.20 0.23 0.22 0.21
0.00 0.01 0.09 0.08 0.01 0.01 0.02 0.02 0.03 0.06 0.09 0.10 0.09 0.07 0.06 0.06 0.05 0.03 0.03 0.03 0.03 0.02 0.02 0.02 0.02 0.04 0.07 0.06 0.07 0.12 0.21 0.28 0.30 0.34 0.34 0.29 0.22 0.19 0.20 0.23 0.29 0.29 0.24 0.21
0.01 0.02 0.06 0.02 0.02 0.02 0.04 0.04 0.03 0.03 0.04 0.04 0.04 0.04 0.06 0.03 0.02 0.01 0.01 0.01 0.01 0.01 0.01 0.02 0.02 0.05 0.10 0.11 0.14 0.18 0.26 0.34 0.34 0.34 0.32 0.26 0.22 0.24 0.25 0.28 0.31 0.32 0.27 0.24
0.01 0.02 0.05 0.04 0.04 0.06 0.04 0.11 0.08 0.05 0.04 0.03 0.02 0.08 0.10 0.04 0.01 0.01 0.01 0.01 0.02 0.02 0.02 0.04 0.06 0.09 0.14 0.20 0.24 0.30 0.38 0.43 0.40 0.41 0.41 0.36 0.35 0.35 0.32 0.33 0.31 0.29 0.28 0.31
0.01 0.03 0.04 0.02 0.04 0.04 0.08 0.15 0.04 0.02 0.01 0.01 0.02 0.05 0.05 0.02 0.01 0.01 0.01 0.02 0.03 0.04 0.04 0.06 0.08 0.12 0.20 0.25 0.27 0.30 0.32 0.39 0.44 0.48 0.52 0.55 0.57 0.51 0.44 0.40 0.38 0.36 0.34 0.35
0.03 0.07 0.09 0.02 0.01 0.01 0.04 0.02 0.01 0.01 0.01 0.02 0.02 0.01 0.01 0.01 0.01 0.01 0.02 0.03 0.04 0.06 0.05 0.07 0.09 0.14 0.20 0.23 0.25 0.28 0.31 0.39 0.46 0.49 0.48 0.55 0.73 0.72 0.69 0.63 0.52 0.47 0.45 0.41
0.02 0.04 0.02 0.00 0.00 0.01 0.01 0.01 0.02 0.02 0.01 0.02 0.02 0.02 0.02 0.02 0.02 0.02 0.02 0.03 0.05 0.09 0.10 0.12 0.15 0.24 0.32 0.29 0.29 0.33 0.38 0.44 0.48 0.48 0.52 0.61 0.69 0.73 0.75 0.70 0.61 0.55 0.55 0.53
0.03 0.01 0.00 0.01 0.01 0.01 0.01 0.01 0.01 0.01 0.01 0.02 0.03 0.03 0.03 0.03 0.03 0.04 0.04 0.06 0.09 0.13 0.19 0.26 0.30 0.35 0.42 0.37 0.37 0.40 0.41 0.45 0.49 0.52 0.53 0.57 0.68 0.71 0.69 0.64 0.63 0.63 0.61 0.57
0.03 0.02 0.01 0.01 0.02 0.01 0.00 0.01 0.01 0.01 0.02 0.02 0.03 0.04 0.04 0.04 0.05 0.05 0.05 0.07 0.12 0.19 0.27 0.34 0.41 0.47 0.49 0.49 0.51 0.52 0.48 0.47 0.50 0.52 0.54 0.60 0.67 0.74 0.73 0.67 0.61 0.65 0.64 0.59
0.04 0.04 0.05 0.05 0.03 0.01 0.01 0.01 0.01 0.02 0.02 0.03 0.04 0.05 0.04 0.05 0.05 0.05 0.06 0.07 0.11 0.18 0.26 0.34 0.42 0.49 0.51 0.58 0.66 0.70 0.69 0.61 0.60 0.62 0.64 0.69 0.71 0.64 0.56 0.54 0.45 0.43 0.46 0.49
0.05 0.04 0.04 0.03 0.02 0.01 0.02 0.01 0.02 0.02 0.03 0.03 0.04 0.04 0.05 0.05 0.05 0.05 0.07 0.09 0.14 0.20 0.25 0.30 0.36 0.46 0.53 0.63 0.69 0.72 0.73 0.73 0.69 0.69 0.71 0.72 0.73 0.69 0.60 0.50 0.44 0.39 0.36 0.38
0.02 0.02 0.01 0.01 0.01 0.01 0.01 0.01 0.02 0.03 0.04 0.04 0.05 0.06 0.06 0.07 0.07 0.08 0.10 0.12 0.15 0.20 0.26 0.30 0.37 0.42 0.49 0.59 0.69 0.71 0.70 0.69 0.67 0.67 0.69 0.68 0.67 0.66 0.68 0.62 0.53 0.45 0.36 0.34
0.01 0.01 0.02 0.01 0.01 0.02 0.03 0.04 0.04 0.05 0.05 0.04 0.04 0.05 0.06 0.07 0.08 0.10 0.11 0.14 0.18 0.21 0.24 0.30 0.41 0.46 0.52 0.59 0.65 0.69 0.71 0.71 0.69 0.62 0.63 0.68 0.67 0.63 0.63 0.65 0.59 0.49 0.41 0.37
0.02 0.02 0.03 0.03 0.04 0.05 0.06 0.06 0.06 0.06 0.06 0.06 0.06 0.07 0.08 0.08 0.09 0.10 0.12 0.17 0.24 0.28 0.31 0.37 0.40 0.47 0.60 0.67 0.70 0.71 0.74 0.73 0.75 0.71 0.63 0.64 0.67 0.67 0.64 0.64 0.61 0.50 0.40 0.35
0.05 0.06 0.07 0.07 0.08 0.08 0.08 0.09 0.09 0.09 0.09 0.09 0.08 0.09 0.10 0.11 0.13 0.14 0.16 0.20 0.26 0.29 0.34 0.42 0.44 0.48 0.59 0.72 0.80 0.80 0.74 0.69 0.70 0.72 0.66 0.58 0.59 0.62 0.60 0.59 0.51 0.43 0.35 0.29
0.09 0.11 0.13 0.13 0.14 0.13 0.12 0.12 0.13 0.14 0.15 0.14 0.13 0.13 0.16 0.20 0.23 0.23 0.24 0.27 0.30 0.29 0.30 0.35 0.43 0.51 0.59 0.68 0.77 0.79 0.77 0.73 0.68 0.67 0.65 0.60 0.56 0.54 0.54 0.51 0.43 0.36 0.32 0.27
0.09 0.12 0.14 0.16 0.18 0.19 0.21 0.23 0.24 0.24 0.23 0.23 0.24 0.25 0.26 0.28 0.30 0.32 0.33 0.38 0.45 0.47 0.42 0.41 0.45 0.48 0.55 0.65 0.75 0.76 0.78 0.79 0.73 0.60 0.58 0.59 0.52 0.50 0.44 0.42 0.38 0.33 0.27 0.23
0.14 0.18 0.22 0.25 0.28 0.32 0.35 0.35 0.36 0.36 0.35 0.35 0.35 0.35 0.36 0.35 0.38 0.42 0.45 0.48 0.54 0.61 0.59 0.54 0.47 0.44 0.51 0.65 0.75 0.73 0.69 0.72 0.68 0.57 0.55 0.57 0.50 0.44 0.35 0.33 0.30 0.27 0.22 0.17
0.20 0.24 0.28 0.31 0.33 0.36 0.39 0.41 0.42 0.41 0.38 0.37 0.39 0.40 0.41 0.39 0.40 0.49 0.62 0.64 0.57 0.61 0.60 0.55 0.48 0.46 0.49 0.63 0.70 0.71 0.66 0.63 0.63 0.55 0.50 0.48 0.44 0.36 0.29 0.28 0.25 0.20 0.17 0.13
0.19 0.22 0.26 0.27 0.28 0.28 0.27 0.29 0.30 0.30 0.29 0.29 0.32 0.36 0.43 0.45 0.43 0.48 0.56 0.65 0.67 0.66 0.60 0.56 0.52 0.48 0.47 0.56 0.63 0.69 0.70 0.63 0.60 0.51 0.43 0.38 0.36 0.31 0.25 0.24 0.21 0.13 0.11 0.10
0.13 0.14 0.15 0.15 0.16 0.15 0.12 0.13 0.18 0.23 0.25 0.27 0.31 0.40 0.53 0.55 0.55 0.63 0.62 0.56 0.63 0.61 0.57 0.53 0.50 0.47 0.43 0.46 0.55 0.61 0.66 0.63 0.59 0.50 0.40 0.34 0.28 0.23 0.18 0.17 0.14 0.10 0.08 0.07
0.03 0.04 0.05 0.06 0.07 0.10 0.11 0.13 0.16 0.19 0.22 0.26 0.27 0.38 0.58 0.70 0.65 0.59 0.57 0.55 0.52 0.47 0.45 0.44 0.37 0.35 0.35 0.37 0.44 0.50 0.56 0.58 0.58 0.49 0.40 0.32 0.23 0.19 0.16 0.14 0.11 0.09 0.07 0.05
0.02 0.02 0.03 0.06 0.12 0.19 0.24 0.25 0.22 0.22 0.27 0.30 0.29 0.37 0.52 0.66 0.74 0.66 0.53 0.47 0.43 0.38 0.38 0.34 0.30 0.32 0.34 0.35 0.41 0.48 0.54 0.54 0.55 0.49 0.40 0.29 0.21 0.18 0.16 0.13 0.11 0.09 0.06 0.04
0.03 0.04 0.07 0.11 0.19 0.29 0.36 0.37 0.38 0.39 0.46 0.51 0.49 0.51 0.58 0.58 0.61 0.59 0.49 0.40 0.36 0.37 0.37 0.35 0.30 0.28 0.30 0.35 0.39 0.47 0.53 0.53 0.49 0.42 0.32 0.25 0.20 0.17 0.15 0.12 0.10 0.08 0.05 0.04
0.06 0.09 0.14 0.18 0.24 0.34 0.40 0.47 0.54 0.58 0.66 0.76 0.80 0.73 0.70 0.67 0.62 0.53 0.44 0.36 0.33 0.33 0.34 0.33 0.29 0.26 0.28 0.32 0.37 0.43 0.46 0.46 0.41 0.35 0.31 0.27 0.24 0.22 0.18 0.13 0.10 0.07 0.04 0.04

GEFSNGP_prec_meanprecacc_060.txt.gz
Total_Precipitation_Accumulation
0.01 0.01 0.04 0.07 0.07 0.05 0.07 0.14 0.25 0.19 0.16 0.19 0.20 0.20 0.24 0.25 0.21 0.17 0.16 0.14 0.15 0.18 0.21 0.25 0.25 0.22 0.19 0.17 0.17 0.23 0.27 0.34 0.44 0.38 0.32 0.29 0.25 0.19 0.17 0.20 0.25 0.37 0.44 0.49
0.00 0.01 0.03 0.06 0.09 0.06 0.05 0.05 0.09 0.12 0.17 0.18 0.18 0.19 0.20 0.19 0.17 0.16 0.16 0.13 0.12 0.14 0.17 0.19 0.16 0.11 0.08 0.08 0.11 0.17 0.23 0.28 0.35 0.34 0.27 0.20 0.16 0.11 0.10 0.14 0.20 0.27 0.30 0.34
0.00 0.01 0.03 0.09 0.09 0.05 0.03 0.02 0.04 0.13 0.21 0.19 0.20 0.19 0.18 0.16 0.14 0.12 0.10 0.08 0.07 0.06 0.06 0.05 0.05 0.04 0.05 0.05 0.06 0.14 0.23 0.31 0.35 0.39 0.39 0.27 0.14 0.10 0.12 0.16 0.21 0.24 0.23 0.22
0.00 0.02 0.12 0.10 0.03 0.02 0.02 0.02 0.03 0.06 0.09 0.10 0.09 0.07 0.06 0.06 0.05 0.03 0.03 0.03 0.03 0.02 0.02 0.02 0.02 0.04 0.07 0.06 0.07 0.12 0.21 0.28 0.30 0.34 0.34 0.29 0.22 0.19 0.20 0.24 0.29 0.30 0.24 0.22
0.01 0.02 0.08 0.04 0.02 0.02 0.04 0.04 0.03 0.03 0.04 0.04 0.04 0.04 0.06 0.03 0.02 0.01 0.01 0.01 0.01 0.01 0.01 0.02 0.02 0.05 0.10 0.11 0.14 0.18 0.26 0.34 0.34 0.34 0.33 0.26 0.23 0.24 0.26 0.29 0.31 0.32 0.27 0.24
0.01 0.02 0.07 0.05 0.04 0.06 0.04 0.11 0.08 0.05 0.04 0.03 0.02 0.08 0.10 0.04 0.01 0.01 0.01 0.01 0.02 0.02 0.02 0.04 0.06 0.09 0.14 0.20 0.24 0.30 0.38 0.43 0.41 0.42 0.42 0.36 0.36 0.35 0.33 0.34 0.31 0.29 0.28 0.32
0.01 0.03 0.04 0.02 0.04 0.04 0.08 0.15 0.04 0.02 0.01 0.01 0.02 0.05 0.05 0.02 0.01 0.01 0.01 0.02 0.03 0.04 0.04 0.06 0.08 0.12 0.21 0.25 0.28 0.31 0.33 0.40 0.45 0.49 0.53 0.56 0.57 0.52 0.45 0.41 0.39 0.36 0.34 0.36
0.03 0.07 0.09 0.02 0.01 0.01 0.04 0.02 0.01 0.01 0.01 0.02 0.02 0.01 0.01 0.01 0.01 0.01 0.02 0.03 0.04 0.06 0.05 0.07 0.09 0.15 0.21 0.24 0.26 0.29 0.33 0.40 0.47 0.51 0.50 0.56 0.74 0.73 0.70 0.65 0.54 0.48 0.46 0.42
0.02 0.04 0.02 0.00 0.00 0.01 0.01 0.01 0.02 0.02 0.01 0.02 0.02 0.02 0.02 0.02 0.02 0.02 0.02 0.03 0.05 0.09 0.10 0.12 0.15 0.25 0.34 0.31 0.31 0.36 0.41 0.47 0.50 0.50 0.54 0.63 0.71 0.75 0.77 0.72 0.63 0.57 0.57 0.56
0.03 0.01 0.00 0.01 0.01 0.01 0.01 0.01 0.01 0.01 0.01 0.02 0.03 0.03 0.03 0.03 0.03 0.04 0.04 0.06 0.09 0.13 0.19 0.27 0.31 0.37 0.44 0.40 0.41 0.44 0.46 0.49 0.52 0.54 0.55 0.59 0.72 0.74 0.71 0.66 0.65 0.65 0.64 0.61
0.03 0.02 0.01 0.01 0.02 0.01 0.00 0.01 0.01 0.01 0.02 0.02 0.03 0.04 0.04 0.04 0.05 0.05 0.06 0.07 0.13 0.20 0.28 0.35 0.43 0.49 0.51 0.52 0.56 0.57 0.54 0.51 0.54 0.56 0.58 0.63 0.70 0.76 0.74 0.69 0.63 0.66 0.66 0.63
0.04 0.04 0.05 0.05 0.03 0.01 0.01 0.01 0.01 0.02 0.02 0.03 0.04 0.05 0.04 0.05 0.05 0.05 0.06 0.08 0.13 0.19 0.28 0.36 0.45 0.51 0.54 0.62 0.72 0.77 0.76 0.67 0.65 0.67 0.68 0.73 0.73 0.65 0.57 0.55 0.46 0.43 0.47 0.50
0.05 0.04 0.04 0.03 0.02 0.01 0.02 0.01 0.02 0.02 0.03 0.03 0.04 0.04 0.05 0.05 0.05 0.06 0.07 0.10 0.16 0.22 0.29 0.34 0.39 0.49 0.57 0.69 0.76 0.78 0.80 0.78 0.74 0.75 0.77 0.76 0.77 0.72 0.62 0.52 0.46 0.39 0.36 0.39
0.02 0.02 0.01 0.01 0.01 0.01 0.01 0.01 0.02 0.03 0.04 0.04 0.05 0.06 0.06 0.07 0.07 0.09 0.11 0.14 0.18 0.24 0.30 0.35 0.41 0.47 0.55 0.66 0.75 0.77 0.75 0.75 0.75 0.77 0.78 0.75 0.72 0.70 0.71 0.65 0.55 0.47 0.37 0.36
0.01 0.01 0.02 0.01 0.01 0.02 0.03 0.04 0.04 0.05 0.05 0.04 0.04 0.05 0.06 0.07 0.09 0.10 0.12 0.16 0.21 0.25 0.29 0.37 0.48 0.53 0.60 0.67 0.72 0.75 0.77 0.78 0.79 0.73 0.71 0.72 0.70 0.66 0.66 0.69 0.63 0.52 0.43 0.40
0.02 0.02 0.03 0.03 0.04 0.05 0.06 0.06 0.06 0.06 0.06 0.06 0.06 0.07 0.08 0.09 0.10 0.11 0.13 0.19 0.28 0.33 0.38 0.46 0.50 0.55 0.68 0.76 0.80 0.80 0.81 0.83 0.85 0.79 0.68 0.67 0.70 0.70 0.68 0.70 0.65 0.53 0.42 0.37
0.05 0.06 0.07 0.07 0.08 0.08 0.08 0.09 0.09 0.09 0.09 0.09 0.08 0.09 0.10 0.12 0.13 0.15 0.17 0.22 0.29 0.33 0.41 0.52 0.54 0.56 0.69 0.82 0.91 0.92 0.84 0.79 0.79 0.79 0.71 0.62 0.63 0.65 0.64 0.63 0.55 0.45 0.37 0.31
0.09 0.11 0.13 0.13 0.14 0.13 0.12 0.12 0.13 0.14 0.15 0.14 0.13 0.13 0.16 0.20 0.23 0.24 0.26 0.29 0.33 0.33 0.35 0.43 0.52 0.59 0.67 0.78 0.88 0.92 0.90 0.84 0.77 0.75 0.72 0.65 0.60 0.58 0.58 0.55 0.45 0.38 0.34 0.29
0.09 0.12 0.14 0.16 0.18 0.19 0.21 0.23 0.24 0.24 0.23 0.23 0.24 0.25 0.26 0.28 0.31 0.33 0.35 0.40 0.50 0.54 0.48 0.47 0.53 0.56 0.64 0.75 0.86 0.86 0.88 0.90 0.82 0.68 0.65 0.65 0.57 0.55 0.47 0.44 0.39 0.34 0.28 0.24
0.14 0.18 0.22 0.25 0.28 0.32 0.35 0.35 0.36 0.36 0.35 0.35 0.35 0.35 0.36 0.35 0.38 0.43 0.46 0.51 0.59 0.68 0.66 0.60 0.55 0.52 0.59 0.75 0.86 0.81 0.76 0.79 0.76 0.64 0.61 0.63 0.55 0.47 0.37 0.34 0.31 0.28 0.23 0.18
0.20 0.24 0.28 0.31 0.33 0.36 0.39 0.41 0.42 0.41 0.38 0.37 0.39 0.41 0.41 0.39 0.41 0.50 0.64 0.67 0.60 0.65 0.65 0.62 0.56 0.54 0.56 0.72 0.79 0.78 0.71 0.69 0.68 0.60 0.54 0.52 0.47 0.38 0.30 0.29 0.26 0.21 0.18 0.14
0.19 0.22 0.26 0.27 0.28 0.28 0.27 0.29 0.30 0.30 0.29 0.29 0.32 0.36 0.43 0.45 0.44 0.49 0.57 0.68 0.70 0.71 0.65 0.61 0.58 0.55 0.53 0.62 0.69 0.76 0.77 0.69 0.65 0.55 0.47 0.40 0.37 0.32 0.26 0.25 0.22 0.14 0.12 0.11
0.13 0.14 0.15 0.15 0.16 0.15 0.12 0.13 0.18 0.23 0.25 0.27 0.31 0.40 0.53 0.55 0.55 0.64 0.63 0.57 0.65 0.65 0.60 0.58 0.55 0.52 0.48 0.50 0.60 0.68 0.74 0.70 0.65 0.55 0.44 0.36 0.29 0.24 0.20 0.18 0.15 0.10 0.09 0.08
0.03 0.04 0.05 0.06 0.07 0.10 0.11 0.13 0.16 0.19 0.22 0.26 0.28 0.38 0.58 0.70 0.65 0.60 0.58 0.57 0.54 0.50 0.47 0.47 0.41 0.39 0.40 0.41 0.50 0.57 0.64 0.65 0.64 0.54 0.43 0.35 0.25 0.22 0.19 0.16 0.12 0.10 0.08 0.05
0.02 0.02 0.03 0.06 0.12 0.19 0.24 0.25 0.22 0.22 0.27 0.30 0.29 0.37 0.52 0.66 0.74 0.66 0.54 0.47 0.44 0.40 0.40 0.37 0.34 0.36 0.38 0.40 0.46 0.55 0.61 0.61 0.60 0.54 0.44 0.34 0.26 0.23 0.20 0.16 0.13 0.11 0.07 0.05
0.03 0.04 0.07 0.11 0.19 0.29 0.36 0.37 0.38 0.39 0.46 0.51 0.49 0.51 0.58 0.58 0.61 0.59 0.49 0.40 0.36 0.38 0.38 0.36 0.33 0.32 0.35 0.40 0.45 0.52 0.59 0.59 0.55 0.47 0.36 0.29 0.24 0.21 0.19 0.16 0.12 0.10 0.07 0.05
0.06 0.09 0.14 0.18 0.24 0.34 0.40 0.47 0.54 0.58 0.66 0.76 0.80 0.73 0.70 0.67 0.62 0.53 0.44 0.36 0.33 0.33 0.35 0.34 0.31 0.29 0.31 0.36 0.42 0.49 0.50 0.50 0.46 0.41 0.37 0.33 0.29 0.26 0.22 0.16 0.13 0.10 0.08 0.07

GEFSNGP_prec_meanprecacc_066.txt.gz
Total_Precipitation_Accumulation
0.01 0.02 0.04 0.08 0.08 0.06 0.08 0.14 0.25 0.19 0.16 0.19 0.20 0.20 0.24 0.25 0.21 0.17 0.16 0.14 0.15 0.18 0.21 0.25 0.25 0.22 0.19 0.17 0.17 0.23 0.27 0.34 0.44 0.38 0.32 0.29 0.25 0.19 0.17 0.20 0.25 0.37 0.44 0.49
0.01 0.02 0.03 0.06 0.09 0.07 0.05 0.05 0.09 0.12 0.17 0.18 0.18 0.19 0.20 0.19 0.17 0.16 0.16 0.13 0.12 0.14 0.17 0.19 0.16 0.11 0.08 0.08 0.11 0.17 0.23 0.28 0.35 0.34 0.27 0.20 0.16 0.11 0.10 0.14 0.20 0.27 0.30 0.34
0.00 0.01 0.03 0.09 0.09 0.05 0.03 0.02 0.04 0.13 0.21 0.19 0.20 0.19 0.18 0.16 0.14 0.12 0.10 0.08 0.07 0.06 0.06 0.05 0.05 0.04 0.05 0.05 0.06 0.14 0.23 0.31 0.35 0.39 0.39 0.27 0.14 0.10 0.12 0.16 0.21 0.24 0.23 0.22
0.00 0.02 0.12 0.10 0.03 0.02 0.02 0.02 0.03 0.06 0.09 0.10 0.09 0.07 0.06 0.06 0.05 0.03 0.03 0.03 0.03 0.02 0.02 0.02 0.02 0.04 0.07 0.06 0.07 0.12 0.22 0.28 0.31 0.34 0.35 0.30 0.23 0.20 0.21 0.24 0.29 0.30 0.24 0.22
0.01 0.02 0.08 0.04 0.02 0.02 0.04 0.04 0.03 0.03 0.04 0.04 0.04 0.04 0.06 0.03 0.02 0.01 0.01 0.01 0.01 0.01 0.01 0.02 0.02 0.05 0.10 0.11 0.14 0.18 0.27 0.35 0.35 0.36 0.35 0.28 0.25 0.26 0.27 0.30 0.32 0.32 0.27 0.24
0.01 0.02 0.07 0.05 0.04 0.06 0.04 0.11 0.08 0.05 0.04 0.03 0.02 0.08 0.10 0.04 0.01 0.01 0.01 0.01 0.02 0.02 0.02 0.04 0.06 0.09 0.15 0.20 0.25 0.31 0.39 0.45 0.43 0.45 0.46 0.41 0.40 0.39 0.36 0.37 0.33 0.30 0.29 0.32
0.01 0.03 0.04 0.02 0.04 0.04 0.08 0.15 0.04 0.02 0.01 0.01 0.02 0.05 0.05 0.02 0.01 0.01 0.01 0.02 0.03 0.04 0.04 0.06 0.09 0.12 0.21 0.26 0.29 0.32 0.35 0.42 0.48 0.52 0.57 0.60 0.62 0.57 0.51 0.46 0.43 0.38 0.35 0.36
0.03 0.07 0.09 0.02 0.01 0.01 0.04 0.02 0.01 0.01 0.01 0.02 0.02 0.01 0.01 0.01 0.01 0.01 0.02 0.03 0.04 0.06 0.05 0.07 0.10 0.16 0.22 0.25 0.28 0.31 0.36 0.43 0.50 0.54 0.54 0.63 0.81 0.79 0.76 0.70 0.58 0.51 0.48 0.43
0.02 0.04 0.02 0.00 0.00 0.01 0.01 0.01 0.02 0.02 0.01 0.02 0.02 0.02 0.02 0.02 0.02 0.02 0.02 0.03 0.05 0.09 0.10 0.13 0.16 0.26 0.37 0.34 0.34 0.39 0.44 0.50 0.54 0.54 0.59 0.70 0.79 0.83 0.83 0.77 0.66 0.60 0.59 0.57
0.03 0.01 0.00 0.01 0.01 0.01 0.01 0.01 0.01 0.01 0.01 0.02 0.03 0.03 0.03 0.03 0.03 0.04 0.04 0.06 0.09 0.14 0.20 0.28 0.32 0.39 0.47 0.43 0.44 0.48 0.50 0.53 0.56 0.58 0.60 0.66 0.78 0.79 0.76 0.71 0.69 0.67 0.65 0.62
0.03 0.02 0.01 0.01 0.02 0.01 0.00 0.01 0.01 0.01 0.02 0.02 0.03 0.04 0.04 0.04 0.05 0.05 0.06 0.07 0.13 0.21 0.30 0.37 0.45 0.51 0.54 0.55 0.61 0.63 0.59 0.56 0.59 0.61 0.64 0.70 0.76 0.81 0.79 0.72 0.66 0.69 0.68 0.64
0.04 0.04 0.05 0.05 0.03 0.01 0.01 0.01 0.01 0.02 0.02 0.03 0.04 0.05 0.04 0.05 0.05 0.05 0.07 0.08 0.13 0.20 0.30 0.38 0.47 0.54 0.57 0.67 0.78 0.84 0.83 0.73 0.71 0.73 0.75 0.79 0.79 0.70 0.60 0.57 0.47 0.45 0.48 0.51
0.05 0.04 0.04 0.03 0.02 0.01 0.02 0.01 0.02 0.02 0.03 0.03 0.04 0.04 0.05 0.05 0.05 0.06 0.07 0.10 0.16 0.23 0.31 0.36 0.42 0.52 0.61 0.74 0.82 0.85 0.87 0.85 0.80 0.81 0.83 0.82 0.82 0.76 0.65 0.54 0.47 0.41 0.38 0.40
0.02 0.02 0.01 0.01 0.01 0.01 0.01 0.01 0.02 0.03 0.04 0.04 0.05 0.06 0.06 0.07 0.07 0.09 0.11 0.14 0.18 0.24 0.32 0.38 0.45 0.50 0.60 0.72 0.81 0.83 0.82 0.81 0.81 0.82 0.83 0.79 0.76 0.74 0.75 0.68 0.58 0.48 0.38 0.37
0.01 0.01 0.02 0.01 0.01 0.02 0.03 0.04 0.04 0.05 0.05 0.04 0.04 0.05 0.06 0.07 0.09 0.10 0.12 0.16 0.21 0.26 0.31 0.40 0.52 0.57 0.66 0.74 0.79 0.82 0.83 0.83 0.83 0.78 0.76 0.76 0.73 0.69 0.70 0.73 0.66 0.55 0.45 0.42
0.02 0.02 0.03 0.03 0.04 0.05 0.06 0.06 0.06 0.06 0.06 0.06 0.06 0.07 0.08 0.09 0.10 0.11 0.13 0.19 0.28 0.34 0.41 0.51 0.55 0.61 0.75 0.84 0.85 0.85 0.86 0.87 0.90 0.84 0.72 0.70 0.72 0.72 0.70 0.72 0.68 0.56 0.46 0.41
0.05 0.06 0.07 0.07 0.08 0.08 0.08 0.09 0.09 0.09 0.09 0.09 0.08 0.09 0.10 0.12 0.13 0.15 0.17 0.22 0.29 0.34 0.44 0.57 0.58 0.61 0.75 0.89 0.96 0.96 0.88 0.82 0.83 0.82 0.73 0.64 0.64 0.67 0.65 0.65 0.58 0.49 0.41 0.35
0.09 0.11 0.13 0.13 0.14 0.13 0.12 0.12 0.13 0.14 0.15 0.14 0.13 0.13 0.16 0.20 0.23 0.24 0.26 0.29 0.33 0.34 0.37 0.46 0.55 0.63 0.72 0.83 0.92 0.95 0.93 0.87 0.79 0.76 0.73 0.66 0.61 0.60 0.60 0.57 0.47 0.41 0.36 0.31
0.09 0.12 0.14 0.16 0.18 0.19 0.21 0.23 0.24 0.24 0.23 0.23 0.24 0.25 0.26 0.28 0.31 0.33 0.35 0.40 0.51 0.56 0.50 0.49 0.57 0.60 0.67 0.78 0.90 0.88 0.90 0.92 0.84 0.69 0.65 0.66 0.59 0.56 0.48 0.45 0.40 0.36 0.30 0.26
0.14 0.18 0.22 0.25 0.28 0.32 0.35 0.35 0.36 0.36 0.35 0.35 0.35 0.35 0.36 0.35 0.38 0.43 0.47 0.51 0.60 0.70 0.67 0.63 0.58 0.54 0.62 0.78 0.89 0.83 0.77 0.81 0.78 0.65 0.62 0.64 0.55 0.47 0.37 0.35 0.32 0.29 0.24 0.20
0.20 0.24 0.28 0.31 0.33 0.36 0.39 0.41 0.42 0.41 0.38 0.37 0.39 0.41 0.41 0.39 0.41 0.50 0.64 0.68 0.61 0.66 0.67 0.65 0.58 0.56 0.58 0.75 0.81 0.80 0.73 0.70 0.69 0.62 0.55 0.53 0.47 0.39 0.30 0.30 0.27 0.22 0.19 0.15
0.20 0.23 0.26 0.27 0.28 0.28 0.27 0.29 0.30 0.30 0.29 0.29 0.32 0.36 0.43 0.45 0.44 0.49 0.57 0.68 0.70 0.73 0.66 0.63 0.60 0.57 0.56 0.65 0.71 0.78 0.79 0.71 0.66 0.56 0.47 0.41 0.38 0.33 0.26 0.25 0.22 0.15 0.13 0.11
0.13 0.14 0.15 0.15 0.16 0.15 0.12 0.13 0.18 0.23 0.25 0.27 0.31 0.40 0.53 0.55 0.55 0.64 0.64 0.57 0.65 0.66 0.61 0.59 0.57 0.54 0.50 0.52 0.62 0.69 0.75 0.71 0.66 0.55 0.44 0.36 0.29 0.24 0.20 0.19 0.15 0.11 0.09 0.09
0.04 0.04 0.05 0.06 0.07 0.10 0.11 0.13 0.16 0.19 0.22 0.26 0.28 0.38 0.58 0.70 0.65 0.60 0.58 0.57 0.55 0.50 0.48 0.48 0.43 0.40 0.42 0.42 0.51 0.58 0.65 0.66 0.65 0.54 0.44 0.35 0.25 0.22 0.19 0.16 0.13 0.11 0.09 0.07
0.02 0.02 0.03 0.06 0.12 0.19 0.24 0.25 0.22 0.22 0.27 0.30 0.29 0.37 0.52 0.66 0.74 0.66 0.54 0.47 0.44 0.40 0.40 0.38 0.34 0.37 0.39 0.41 0.48 0.56 0.62 0.62 0.61 0.55 0.44 0.34 0.27 0.23 0.20 0.17 0.14 0.11 0.08 0.05
0.03 0.05 0.07 0.11 0.19 0.29 0.36 0.37 0.38 0.39 0.46 0.51 0.49 0.51 0.58 0.58 0.61 0.59 0.49 0.40 0.36 0.38 0.38 0.37 0.33 0.33 0.36 0.42 0.46 0.53 0.60 0.60 0.56 0.49 0.38 0.31 0.25 0.22 0.20 0.16 0.13 0.11 0.08 0.06
0.06 0.09 0.14 0.18 0.25 0.34 0.40 0.47 0.54 0.58 0.66 0.76 0.80 0.73 0.70 0.67 0.62 0.53 0.44 0.36 0.33 0.33 0.35 0.34 0.31 0.29 0.32 0.38 0.44 0.50 0.51 0.51 0.47 0.42 0.39 0.34 0.30 0.27 0.23 0.18 0.14 0.12 0.09 0.08

GEFSNGP_prec_meanprecacc_072.txt.gz
Total_Precipitation_Accumulation
0.01 0.02 0.04 0.08 0.08 0.06 0.08 0.14 0.25 0.19 0.16 0.19 0.20 0.20 0.24 0.25 0.21 0.17 0.16 0.14 0.15 0.18 0.21 0.25 0.25 0.22 0.19 0.17 0.17 0.23 0.27 0.34 0.44 0.39 0.32 0.29 0.26 0.20 0.17 0.21 0.26 0.38 0.45 0.50
0.01 0.02 0.03 0.06 0.09 0.07 0.05 0.05 0.09 0.12 0.17 0.18 0.18 0.19 0.20 0.19 0.17 0.16 0.16 0.13 0.12 0.14 0.17 0.19 0.16 0.11 0.08 0.08 0.11 0.18 0.24 0.28 0.35 0.34 0.27 0.21 0.17 0.12 0.11 0.16 0.22 0.29 0.32 0.37
0.00 0.01 0.03 0.09 0.09 0.05 0.03 0.02 0.04 0.13 0.21 0.19 0.20 0.19 0.18 0.16 0.14 0.12 0.10 0.08 0.07 0.06 0.06 0.05 0.05 0.04 0.05 0.05 0.06 0.14 0.24 0.31 0.36 0.40 0.40 0.28 0.15 0.12 0.14 0.19 0.25 0.28 0.27 0.26
0.00 0.02 0.12 0.10 0.03 0.02 0.02 0.02 0.03 0.06 0.09 0.10 0.09 0.07 0.06 0.06 0.05 0.03 0.03 0.03 0.03 0.02 0.02 0.02 0.02 0.04 0.07 0.06 0.07 0.12 0.22 0.29 0.32 0.36 0.37 0.33 0.26 0.23 0.25 0.29 0.35 0.36 0.30 0.27
0.01 0.02 0.08 0.04 0.02 0.02 0.04 0.04 0.03 0.03 0.04 0.04 0.04 0.04 0.06 0.03 0.02 0.01 0.01 0.01 0.01 0.02 0.01 0.02 0.02 0.05 0.11 0.12 0.14 0.19 0.28 0.37 0.37 0.39 0.39 0.33 0.30 0.32 0.34 0.38 0.39 0.39 0.33 0.30
0.01 0.02 0.07 0.05 0.04 0.06 0.04 0.11 0.08 0.05 0.04 0.03 0.02 0.08 0.10 0.04 0.01 0.01 0.01 0.01 0.02 0.02 0.02 0.04 0.06 0.10 0.15 0.21 0.26 0.33 0.42 0.48 0.46 0.50 0.51 0.46 0.46 0.46 0.44 0.46 0.41 0.37 0.35 0.38
0.01 0.03 0.04 0.02 0.04 0.04 0.08 0.15 0.04 0.02 0.01 0.01 0.02 0.05 0.05 0.02 0.01 0.01 0.01 0.02 0.03 0.04 0.04 0.06 0.09 0.13 0.22 0.27 0.31 0.35 0.38 0.45 0.52 0.57 0.63 0.67 0.69 0.65 0.59 0.55 0.51 0.47 0.43 0.43
0.03 0.07 0.09 0.02 0.01 0.01 0.04 0.02 0.01 0.01 0.01 0.02 0.02 0.01 0.01 0.01 0.01 0.01 0.02 0.03 0.04 0.06 0.05 0.07 0.10 0.16 0.24 0.27 0.30 0.34 0.39 0.47 0.54 0.58 0.59 0.68 0.90 0.88 0.86 0.80 0.69 0.61 0.57 0.51
0.02 0.04 0.02 0.00 0.00 0.01 0.01 0.01 0.02 0.02 0.01 0.02 0.02 0.02 0.02 0.02 0.02 0.02 0.02 0.03 0.05 0.09 0.11 0.13 0.17 0.28 0.39 0.36 0.37 0.42 0.48 0.54 0.58 0.59 0.64 0.77 0.88 0.92 0.93 0.87 0.76 0.69 0.66 0.64
0.03 0.01 0.00 0.01 0.01 0.01 0.01 0.01 0.01 0.01 0.01 0.02 0.03 0.03 0.03 0.03 0.03 0.04 0.04 0.06 0.09 0.14 0.20 0.28 0.33 0.40 0.49 0.46 0.47 0.52 0.54 0.57 0.60 0.64 0.65 0.71 0.86 0.87 0.85 0.81 0.79 0.76 0.73 0.70
0.03 0.02 0.01 0.01 0.02 0.01 0.00 0.01 0.01 0.01 0.02 0.02 0.03 0.04 0.04 0.04 0.05 0.05 0.06 0.07 0.13 0.21 0.30 0.38 0.46 0.52 0.56 0.59 0.65 0.68 0.63 0.60 0.63 0.67 0.70 0.76 0.82 0.88 0.86 0.80 0.72 0.75 0.74 0.71
0.04 0.04 0.05 0.05 0.03 0.01 0.01 0.01 0.01 0.02 0.02 0.03 0.04 0.05 0.04 0.05 0.05 0.05 0.07 0.08 0.13 0.20 0.30 0.39 0.48 0.55 0.60 0.70 0.82 0.89 0.88 0.77 0.76 0.78 0.80 0.85 0.85 0.76 0.65 0.60 0.49 0.47 0.51 0.55
0.05 0.04 0.04 0.03 0.02 0.01 0.02 0.01 0.02 0.02 0.03 0.03 0.04 0.04 0.05 0.05 0.05 0.06 0.07 0.10 0.16 0.23 0.31 0.37 0.43 0.54 0.64 0.77 0.85 0.89 0.91 0.90 0.84 0.85 0.88 0.87 0.88 0.82 0.72 0.60 0.50 0.43 0.39 0.42
0.02 0.02 0.01 0.01 0.01 0.01 0.01 0.01 0.02 0.03 0.04 0.04 0.05 0.06 0.06 0.07 0.07 0.09 0.11 0.14 0.18 0.25 0.32 0.39 0.46 0.52 0.63 0.75 0.84 0.86 0.85 0.85 0.84 0.86 0.88 0.84 0.82 0.81 0.82 0.75 0.65 0.54 0.42 0.41
0.01 0.01 0.02 0.01 0.01 0.02 0.03 0.04 0.04 0.05 0.05 0.04 0.04 0.05 0.06 0.07 0.09 0.10 0.12 0.16 0.21 0.26 0.31 0.41 0.53 0.59 0.67 0.76 0.80 0.84 0.86 0.86 0.86 0.82 0.80 0.80 0.78 0.75 0.75 0.79 0.73 0.62 0.52 0.48
0.02 0.02 0.03 0.03 0.04 0.05 0.06 0.06 0.06 0.06 0.06 0.06 0.06 0.07 0.08 0.09 0.10 0.11 0.13 0.19 0.28 0.35 0.42 0.52 0.56 0.62 0.77 0.85 0.87 0.87 0.89 0.89 0.92 0.87 0.75 0.74 0.77 0.78 0.76 0.79 0.75 0.63 0.54 0.48
0.05 0.06 0.07 0.07 0.08 0.08 0.08 0.09 0.09 0.09 0.09 0.09 0.08 0.09 0.10 0.12 0.13 0.15 0.17 0.22 0.29 0.34 0.44 0.58 0.59 0.62 0.76 0.90 0.98 0.98 0.90 0.84 0.84 0.85 0.76 0.67 0.67 0.71 0.70 0.70 0.64 0.55 0.47 0.40
0.09 0.11 0.13 0.13 0.14 0.13 0.12 0.12 0.13 0.14 0.15 0.14 0.13 0.13 0.16 0.20 0.23 0.24 0.26 0.29 0.33 0.34 0.37 0.46 0.56 0.64 0.73 0.84 0.93 0.97 0.95 0.89 0.82 0.79 0.76 0.68 0.63 0.63 0.65 0.62 0.52 0.46 0.41 0.35
0.09 0.12 0.14 0.16 0.18 0.19 0.21 0.23 0.24 0.24 0.23 0.23 0.24 0.25 0.26 0.28 0.31 0.33 0.35 0.40 0.51 0.56 0.50 0.49 0.58 0.60 0.68 0.79 0.91 0.90 0.92 0.94 0.87 0.72 0.68 0.68 0.61 0.59 0.52 0.48 0.43 0.39 0.34 0.30
0.14 0.18 0.22 0.25 0.28 0.32 0.35 0.35 0.36 0.36 0.35 0.35 0.35 0.35 0.36 0.35 0.38 0.43 0.47 0.51 0.60 0.70 0.67 0.63 0.58 0.54 0.62 0.78 0.90 0.84 0.79 0.83 0.80 0.68 0.64 0.66 0.58 0.50 0.39 0.37 0.34 0.31 0.29 0.25
0.20 0.24 0.28 0.31 0.33 0.36 0.39 0.41 0.42 0.41 0.38 0.37 0.39 0.41 0.41 0.39 0.41 0.50 0.64 0.68 0.61 0.66 0.67 0.65 0.58 0.56 0.59 0.76 0.82 0.81 0.75 0.72 0.72 0.65 0.58 0.55 0.50 0.42 0.33 0.32 0.30 0.26 0.23 0.20
0.20 0.23 0.26 0.27 0.28 0.28 0.27 0.29 0.30 0.30 0.29 0.29 0.32 0.36 0.43 0.45 0.44 0.49 0.57 0.68 0.70 0.73 0.66 0.63 0.60 0.58 0.56 0.66 0.72 0.78 0.79 0.72 0.67 0.58 0.51 0.44 0.41 0.36 0.30 0.28 0.24 0.17 0.15 0.15
0.13 0.14 0.15 0.16 0.16 0.15 0.12 0.13 0.18 0.23 0.25 0.27 0.31 0.40 0.53 0.55 0.55 0.64 0.64 0.57 0.65 0.66 0.61 0.59 0.57 0.55 0.51 0.53 0.63 0.70 0.76 0.72 0.67 0.56 0.46 0.38 0.31 0.27 0.23 0.21 0.17 0.12 0.11 0.11
0.04 0.04 0.05 0.06 0.07 0.10 0.11 0.13 0.16 0.19 0.22 0.26 0.28 0.38 0.58 0.70 0.65 0.60 0.58 0.57 0.55 0.50 0.48 0.48 0.43 0.42 0.43 0.43 0.52 0.59 0.65 0.67 0.66 0.55 0.45 0.36 0.27 0.24 0.22 0.18 0.14 0.13 0.12 0.09
0.03 0.03 0.04 0.07 0.12 0.19 0.25 0.25 0.23 0.22 0.27 0.30 0.29 0.37 0.52 0.66 0.74 0.66 0.54 0.47 0.45 0.41 0.40 0.38 0.35 0.38 0.40 0.42 0.49 0.57 0.63 0.63 0.63 0.56 0.46 0.36 0.29 0.25 0.22 0.19 0.16 0.13 0.11 0.08
0.04 0.05 0.08 0.12 0.19 0.30 0.36 0.37 0.38 0.39 0.46 0.51 0.49 0.51 0.58 0.58 0.61 0.59 0.49 0.40 0.36 0.38 0.38 0.37 0.33 0.33 0.36 0.43 0.47 0.54 0.61 0.61 0.57 0.51 0.40 0.33 0.27 0.24 0.22 0.18 0.15 0.13 0.10 0.07
0.07 0.10 0.15 0.19 0.26 0.35 0.41 0.47 0.54 0.58 0.66 0.76 0.80 0.73 0.70 0.67 0.62 0.53 0.44 0.36 0.33 0.33 0.35 0.34 0.31 0.29 0.32 0.38 0.45 0.52 0.53 0.52 0.48 0.43 0.41 0.36 0.31 0.28 0.25 0.19 0.16 0.13 0.10 0.09

GEFSNGP_prec_meanprecacc_078.txt.gz
Total_Precipitation_Accumulation
0.01 0.02 0.04 0.08 0.08 0.06 0.08 0.14 0.25 0.19 0.16 0.19 0.20 0.20 0.24 0.25 0.21 0.17 0.16 0.14 0.15 0.18 0.21 0.25 0.25 0.22 0.19 0.17 0.17 0.23 0.28 0.35 0.44 0.39 0.33 0.30 0.27 0.21 0.19 0.24 0.29 0.42 0.50 0.56
0.01 0.02 0.03 0.06 0.09 0.07 0.05 0.05 0.09 0.12 0.17 0.18 0.18 0.19 0.20 0.19 0.17 0.16 0.16 0.13 0.12 0.14 0.17 0.19 0.16 0.11 0.08 0.08 0.11 0.18 0.24 0.29 0.36 0.35 0.28 0.23 0.19 0.14 0.14 0.20 0.27 0.35 0.38 0.43
0.01 0.02 0.03 0.09 0.09 0.05 0.03 0.02 0.04 0.13 0.21 0.19 0.20 0.19 0.18 0.16 0.14 0.12 0.10 0.08 0.07 0.06 0.06 0.05 0.05 0.04 0.05 0.06 0.07 0.15 0.24 0.32 0.37 0.42 0.41 0.31 0.18 0.15 0.18 0.24 0.32 0.36 0.35 0.35
0.00 0.02 0.13 0.11 0.03 0.02 0.02 0.02 0.03 0.06 0.09 0.10 0.09 0.07 0.06 0.06 0.05 0.03 0.03 0.03 0.03 0.02 0.02 0.02 0.02 0.04 0.07 0.06 0.08 0.13 0.23 0.31 0.33 0.38 0.40 0.36 0.30 0.28 0.31 0.37 0.44 0.45 0.39 0.38
0.01 0.03 0.09 0.04 0.02 0.02 0.04 0.04 0.03 0.03 0.04 0.04 0.04 0.04 0.06 0.03 0.02 0.01 0.01 0.01 0.01 0.02 0.01 0.02 0.02 0.06 0.11 0.12 0.15 0.20 0.29 0.39 0.40 0.42 0.42 0.36 0.34 0.37 0.42 0.47 0.49 0.49 0.44 0.41
0.01 0.02 0.07 0.05 0.04 0.06 0.04 0.11 0.08 0.05 0.04 0.03 0.02 0.08 0.10 0.04 0.01 0.01 0.01 0.01 0.02 0.02 0.03 0.04 0.07 0.11 0.16 0.22 0.27 0.34 0.44 0.50 0.49 0.53 0.55 0.51 0.51 0.53 0.52 0.56 0.51 0.47 0.45 0.48
0.01 0.03 0.04 0.03 0.04 0.04 0.08 0.16 0.04 0.02 0.01 0.01 0.02 0.05 0.05 0.02 0.01 0.01 0.01 0.02 0.03 0.04 0.04 0.07 0.10 0.14 0.23 0.29 0.33 0.37 0.40 0.48 0.54 0.61 0.68 0.72 0.76 0.73 0.69 0.64 0.62 0.57 0.52 0.53
0.03 0.08 0.10 0.02 0.01 0.02 0.04 0.02 0.01 0.01 0.01 0.02 0.02 0.01 0.01 0.01 0.01 0.01 0.02 0.03 0.04 0.06 0.06 0.08 0.11 0.18 0.25 0.29 0.32 0.35 0.41 0.50 0.57 0.63 0.63 0.72 0.97 0.97 0.97 0.92 0.80 0.72 0.68 0.61
0.03 0.04 0.02 0.00 0.01 0.01 0.01 0.01 0.02 0.02 0.01 0.02 0.02 0.02 0.02 0.02 0.02 0.02 0.02 0.03 0.05 0.09 0.11 0.14 0.17 0.29 0.41 0.38 0.39 0.43 0.50 0.57 0.61 0.62 0.70 0.84 0.97 1.01 1.05 1.01 0.89 0.81 0.79 0.75
0.03 0.01 0.00 0.01 0.01 0.01 0.01 0.01 0.01 0.01 0.01 0.02 0.03 0.03 0.03 0.03 0.03 0.04 0.04 0.06 0.09 0.14 0.21 0.29 0.34 0.41 0.51 0.48 0.49 0.54 0.57 0.60 0.63 0.68 0.71 0.80 0.95 0.97 0.97 0.94 0.91 0.88 0.87 0.83
0.03 0.02 0.01 0.01 0.02 0.01 0.00 0.01 0.01 0.01 0.02 0.02 0.03 0.04 0.04 0.04 0.05 0.05 0.06 0.07 0.13 0.22 0.31 0.39 0.47 0.53 0.57 0.61 0.67 0.71 0.66 0.63 0.67 0.73 0.78 0.84 0.91 0.96 0.92 0.87 0.78 0.80 0.82 0.80
0.04 0.04 0.05 0.05 0.03 0.01 0.01 0.01 0.01 0.02 0.02 0.03 0.04 0.05 0.04 0.05 0.05 0.05 0.07 0.08 0.14 0.21 0.31 0.40 0.48 0.56 0.61 0.71 0.84 0.92 0.91 0.81 0.81 0.84 0.87 0.93 0.93 0.84 0.70 0.62 0.49 0.47 0.52 0.56
0.05 0.04 0.04 0.03 0.02 0.01 0.02 0.01 0.02 0.02 0.03 0.03 0.04 0.04 0.05 0.05 0.05 0.06 0.07 0.11 0.17 0.24 0.32 0.38 0.44 0.54 0.65 0.78 0.87 0.92 0.95 0.94 0.89 0.91 0.95 0.95 0.97 0.93 0.83 0.68 0.53 0.44 0.40 0.43
0.02 0.02 0.01 0.01 0.01 0.01 0.01 0.01 0.02 0.03 0.04 0.04 0.05 0.06 0.06 0.07 0.07 0.09 0.11 0.14 0.18 0.25 0.33 0.40 0.47 0.53 0.64 0.76 0.85 0.88 0.88 0.88 0.88 0.92 0.94 0.91 0.90 0.91 0.94 0.87 0.76 0.62 0.45 0.42
0.01 0.01 0.02 0.01 0.01 0.02 0.03 0.04 0.04 0.05 0.05 0.04 0.04 0.05 0.06 0.07 0.09 0.10 0.12 0.16 0.21 0.26 0.32 0.42 0.54 0.60 0.68 0.77 0.82 0.86 0.89 0.89 0.89 0.87 0.87 0.87 0.86 0.84 0.85 0.90 0.86 0.75 0.61 0.53
0.02 0.02 0.03 0.03 0.04 0.05 0.06 0.06 0.06 0.06 0.06 0.06 0.06 0.07 0.08 0.09 0.10 0.11 0.13 0.19 0.28 0.35 0.43 0.53 0.57 0.62 0.77 0.86 0.89 0.89 0.92 0.91 0.94 0.91 0.82 0.81 0.84 0.85 0.84 0.89 0.87 0.76 0.64 0.55
0.05 0.06 0.07 0.07 0.08 0.08 0.08 0.09 0.09 0.09 0.09 0.09 0.08 0.09 0.10 0.12 0.13 0.15 0.17 0.22 0.29 0.35 0.46 0.59 0.59 0.62 0.77 0.91 0.99 1.00 0.93 0.87 0.88 0.90 0.82 0.72 0.73 0.78 0.78 0.79 0.74 0.65 0.55 0.45
0.09 0.11 0.13 0.13 0.14 0.13 0.12 0.12 0.13 0.14 0.15 0.14 0.13 0.13 0.16 0.20 0.23 0.24 0.26 0.29 0.34 0.35 0.38 0.46 0.56 0.64 0.73 0.85 0.93 0.98 0.97 0.93 0.87 0.85 0.81 0.72 0.68 0.70 0.72 0.69 0.59 0.52 0.47 0.39
0.09 0.12 0.14 0.16 0.18 0.19 0.21 0.23 0.24 0.24 0.23 0.23 0.24 0.25 0.26 0.28 0.31 0.33 0.35 0.41 0.51 0.57 0.51 0.49 0.58 0.60 0.68 0.80 0.91 0.91 0.94 0.98 0.91 0.76 0.73 0.72 0.66 0.65 0.57 0.52 0.47 0.44 0.40 0.36
0.14 0.18 0.22 0.25 0.28 0.32 0.35 0.35 0.36 0.36 0.35 0.35 0.35 0.36 0.36 0.35 0.38 0.43 0.47 0.51 0.60 0.70 0.67 0.63 0.58 0.54 0.62 0.78 0.90 0.85 0.82 0.86 0.84 0.72 0.69 0.72 0.64 0.55 0.43 0.41 0.38 0.37 0.37 0.33
0.20 0.24 0.28 0.31 0.33 0.36 0.39 0.41 0.42 0.41 0.38 0.38 0.39 0.41 0.41 0.39 0.41 0.50 0.64 0.68 0.61 0.66 0.67 0.65 0.58 0.56 0.59 0.76 0.82 0.82 0.76 0.74 0.75 0.68 0.63 0.61 0.57 0.48 0.38 0.38 0.35 0.31 0.29 0.26
0.20 0.23 0.26 0.27 0.28 0.28 0.28 0.30 0.30 0.31 0.30 0.30 0.33 0.37 0.43 0.45 0.44 0.49 0.57 0.68 0.70 0.73 0.66 0.63 0.60 0.58 0.56 0.66 0.72 0.79 0.80 0.73 0.69 0.61 0.56 0.50 0.47 0.42 0.34 0.32 0.28 0.21 0.19 0.19
0.13 0.14 0.15 0.16 0.16 0.15 0.13 0.14 0.19 0.24 0.26 0.28 0.31 0.40 0.53 0.56 0.55 0.64 0.64 0.57 0.65 0.66 0.61 0.59 0.57 0.55 0.51 0.53 0.63 0.71 0.76 0.73 0.68 0.58 0.50 0.44 0.38 0.32 0.28 0.24 0.19 0.15 0.14 0.15
0.04 0.04 0.05 0.06 0.08 0.10 0.12 0.13 0.16 0.19 0.23 0.26 0.28 0.38 0.59 0.70 0.65 0.60 0.58 0.57 0.55 0.50 0.48 0.48 0.43 0.42 0.43 0.43 0.52 0.59 0.66 0.67 0.67 0.57 0.47 0.40 0.31 0.28 0.26 0.23 0.17 0.15 0.15 0.13
0.03 0.03 0.04 0.07 0.13 0.20 0.25 0.26 0.23 0.23 0.28 0.30 0.29 0.37 0.53 0.66 0.74 0.67 0.54 0.47 0.45 0.41 0.40 0.38 0.35 0.38 0.40 0.42 0.49 0.57 0.63 0.63 0.64 0.57 0.48 0.39 0.32 0.28 0.26 0.23 0.20 0.18 0.15 0.11
0.04 0.06 0.08 0.12 0.20 0.30 0.36 0.38 0.39 0.40 0.47 0.52 0.49 0.52 0.58 0.59 0.61 0.59 0.49 0.40 0.36 0.38 0.38 0.37 0.33 0.33 0.36 0.43 0.47 0.54 0.61 0.61 0.58 0.52 0.42 0.35 0.29 0.26 0.26 0.22 0.19 0.19 0.14 0.11
0.07 0.10 0.15 0.19 0.26 0.35 0.42 0.48 0.55 0.59 0.67 0.77 0.81 0.74 0.71 0.68 0.63 0.53 0.44 0.36 0.33 0.33 0.35 0.34 0.31 0.29 0.32 0.38 0.45 0.52 0.53 0.53 0.48 0.44 0.41 0.37 0.32 0.31 0.29 0.23 0.20 0.17 0.13 0.12

GEFSNGP_prec_meanprecacc_084.txt.gz
Total_Precipitation_Accumulation
0.02 0.03 0.05 0.09 0.08 0.07 0.08 0.14 0.25 0.19 0.16 0.19 0.20 0.20 0.24 0.25 0.21 0.17 0.16 0.14 0.15 0.18 0.21 0.25 0.25 0.22 0.19 0.17 0.17 0.23 0.28 0.35 0.44 0.39 0.33 0.30 0.27 0.21 0.19 0.24 0.29 0.42 0.51 0.56
0.01 0.03 0.05 0.08 0.10 0.07 0.05 0.05 0.09 0.12 0.17 0.18 0.18 0.19 0.20 0.19 0.17 0.16 0.16 0.13 0.12 0.14 0.17 0.19 0.16 0.11 0.08 0.08 0.11 0.18 0.24 0.29 0.36 0.35 0.28 0.23 0.19 0.14 0.14 0.20 0.27 0.35 0.39 0.44
0.01 0.03 0.04 0.10 0.10 0.06 0.03 0.03 0.04 0.13 0.21 0.19 0.20 0.19 0.18 0.16 0.14 0.12 0.10 0.08 0.07 0.06 0.06 0.05 0.05 0.04 0.05 0.06 0.07 0.15 0.24 0.32 0.37 0.42 0.41 0.31 0.18 0.15 0.18 0.24 0.32 0.37 0.35 0.36
0.00 0.03 0.14 0.12 0.05 0.03 0.03 0.02 0.03 0.06 0.09 0.10 0.09 0.07 0.06 0.06 0.05 0.03 0.03 0.03 0.03 0.02 0.02 0.02 0.02 0.04 0.07 0.06 0.08 0.13 0.23 0.31 0.34 0.38 0.40 0.36 0.30 0.28 0.32 0.38 0.44 0.45 0.40 0.38
0.01 0.03 0.10 0.06 0.04 0.05 0.06 0.04 0.03 0.03 0.04 0.04 0.04 0.04 0.06 0.03 0.02 0.01 0.01 0.01 0.01 0.02 0.01 0.02 0.02 0.06 0.11 0.12 0.15 0.20 0.30 0.39 0.40 0.42 0.42 0.37 0.34 0.38 0.42 0.48 0.49 0.49 0.44 0.42
0.02 0.05 0.10 0.07 0.07 0.08 0.06 0.11 0.08 0.05 0.04 0.03 0.02 0.08 0.10 0.04 0.01 0.01 0.01 0.01 0.02 0.02 0.03 0.04 0.07 0.11 0.16 0.22 0.27 0.35 0.44 0.50 0.49 0.53 0.56 0.51 0.52 0.53 0.53 0.56 0.52 0.47 0.45 0.49
0.04 0.07 0.09 0.07 0.06 0.05 0.09 0.16 0.04 0.02 0.01 0.01 0.02 0.05 0.05 0.02 0.01 0.01 0.01 0.02 0.03 0.04 0.04 0.07 0.10 0.14 0.24 0.29 0.33 0.37 0.40 0.48 0.55 0.61 0.68 0.72 0.77 0.73 0.69 0.65 0.62 0.57 0.53 0.54
0.06 0.12 0.13 0.05 0.02 0.03 0.05 0.02 0.01 0.01 0.01 0.02 0.02 0.01 0.01 0.01 0.01 0.01 0.02 0.03 0.04 0.06 0.06 0.08 0.11 0.18 0.25 0.29 0.32 0.36 0.41 0.50 0.57 0.63 0.63 0.73 0.97 0.97 0.98 0.93 0.81 0.73 0.69 0.62
0.03 0.05 0.02 0.01 0.01 0.01 0.01 0.01 0.02 0.02 0.01 0.02 0.02 0.02 0.02 0.02 0.02 0.02 0.02 0.03 0.05 0.09 0.11 0.14 0.18 0.29 0.41 0.38 0.39 0.44 0.50 0.57 0.61 0.62 0.70 0.84 0.98 1.02 1.06 1.02 0.90 0.82 0.80 0.77
0.03 0.01 0.01 0.01 0.01 0.01 0.01 0.01 0.01 0.01 0.01 0.02 0.03 0.03 0.03 0.03 0.03 0.04 0.04 0.06 0.09 0.14 0.21 0.29 0.34 0.41 0.51 0.48 0.49 0.54 0.57 0.60 0.63 0.68 0.72 0.80 0.96 0.98 0.98 0.95 0.93 0.89 0.88 0.84
0.03 0.02 0.01 0.02 0.02 0.01 0.00 0.01 0.01 0.01 0.02 0.02 0.03 0.04 0.04 0.04 0.05 0.05 0.06 0.07 0.13 0.22 0.31 0.39 0.47 0.53 0.57 0.61 0.67 0.71 0.66 0.64 0.68 0.73 0.78 0.85 0.92 0.97 0.93 0.88 0.79 0.81 0.83 0.82
0.04 0.04 0.05 0.05 0.03 0.01 0.01 0.01 0.01 0.02 0.02 0.03 0.04 0.05 0.04 0.05 0.05 0.05 0.07 0.08 0.14 0.21 0.31 0.40 0.49 0.56 0.61 0.71 0.84 0.92 0.91 0.81 0.81 0.84 0.88 0.94 0.94 0.85 0.71 0.63 0.50 0.48 0.53 0.57
0.05 0.04 0.04 0.03 0.02 0.01 0.02 0.01 0.02 0.02 0.03 0.03 0.04 0.04 0.05 0.05 0.05 0.06 0.07 0.11 0.17 0.24 0.32 0.38 0.44 0.54 0.65 0.78 0.87 0.92 0.95 0.94 0.90 0.92 0.96 0.96 0.98 0.94 0.84 0.69 0.55 0.46 0.42 0.45
0.03 0.02 0.02 0.01 0.01 0.01 0.01 0.01 0.02 0.03 0.04 0.04 0.05 0.06 0.06 0.07 0.07 0.09 0.11 0.14 0.18 0.25 0.33 0.40 0.47 0.53 0.64 0.76 0.86 0.89 0.89 0.88 0.88 0.93 0.95 0.92 0.91 0.92 0.97 0.91 0.80 0.65 0.48 0.45
0.02 0.02 0.02 0.01 0.01 0.02 0.03 0.04 0.04 0.05 0.05 0.05 0.05 0.05 0.06 0.08 0.09 0.10 0.12 0.16 0.21 0.26 0.32 0.42 0.54 0.60 0.68 0.77 0.82 0.86 0.89 0.89 0.89 0.87 0.87 0.89 0.87 0.85 0.89 0.94 0.90 0.79 0.64 0.55
0.03 0.03 0.03 0.04 0.04 0.05 0.06 0.06 0.07 0.07 0.07 0.07 0.07 0.07 0.08 0.09 0.10 0.11 0.13 0.19 0.28 0.35 0.43 0.53 0.57 0.62 0.77 0.86 0.89 0.90 0.92 0.92 0.95 0.92 0.82 0.82 0.85 0.88 0.88 0.92 0.91 0.81 0.68 0.58
0.08 0.08 0.08 0.08 0.08 0.08 0.08 0.09 0.11 0.11 0.10 0.10 0.09 0.09 0.10 0.12 0.14 0.15 0.17 0.22 0.29 0.35 0.46 0.59 0.59 0.62 0.77 0.91 0.99 1.00 0.93 0.87 0.88 0.90 0.83 0.73 0.75 0.81 0.81 0.82 0.77 0.68 0.58 0.47
0.11 0.13 0.14 0.14 0.14 0.13 0.13 0.14 0.16 0.16 0.17 0.15 0.14 0.14 0.16 0.21 0.23 0.24 0.26 0.29 0.34 0.35 0.38 0.46 0.56 0.64 0.73 0.85 0.93 0.98 0.97 0.93 0.87 0.85 0.82 0.73 0.69 0.72 0.75 0.72 0.62 0.55 0.49 0.41
0.11 0.13 0.15 0.17 0.19 0.20 0.22 0.25 0.26 0.26 0.25 0.24 0.25 0.26 0.27 0.28 0.31 0.34 0.35 0.41 0.51 0.57 0.51 0.50 0.58 0.60 0.68 0.80 0.91 0.91 0.94 0.98 0.91 0.77 0.74 0.73 0.66 0.67 0.59 0.54 0.49 0.46 0.42 0.38
0.16 0.19 0.23 0.26 0.30 0.34 0.36 0.37 0.37 0.38 0.36 0.36 0.36 0.36 0.36 0.36 0.39 0.43 0.47 0.51 0.60 0.70 0.68 0.63 0.58 0.54 0.62 0.78 0.90 0.85 0.82 0.87 0.84 0.72 0.70 0.73 0.65 0.57 0.46 0.42 0.39 0.38 0.38 0.35
0.22 0.27 0.31 0.33 0.35 0.38 0.40 0.43 0.44 0.42 0.40 0.39 0.41 0.42 0.42 0.40 0.41 0.50 0.65 0.68 0.61 0.67 0.67 0.65 0.58 0.56 0.59 0.76 0.82 0.82 0.77 0.74 0.75 0.69 0.63 0.62 0.58 0.50 0.40 0.40 0.37 0.33 0.31 0.28
0.22 0.25 0.28 0.30 0.30 0.29 0.29 0.31 0.32 0.33 0.32 0.32 0.34 0.38 0.44 0.45 0.44 0.50 0.58 0.68 0.71 0.73 0.66 0.63 0.60 0.58 0.56 0.66 0.72 0.79 0.80 0.73 0.69 0.62 0.57 0.51 0.48 0.44 0.36 0.34 0.29 0.22 0.22 0.21
0.14 0.15 0.16 0.17 0.18 0.17 0.15 0.16 0.21 0.26 0.28 0.29 0.32 0.41 0.54 0.56 0.56 0.65 0.65 0.58 0.66 0.67 0.62 0.59 0.57 0.55 0.51 0.53 0.63 0.71 0.76 0.73 0.69 0.58 0.50 0.45 0.39 0.34 0.30 0.26 0.20 0.16 0.17 0.18
0.04 0.05 0.06 0.07 0.09 0.11 0.13 0.14 0.17 0.21 0.24 0.27 0.29 0.39 0.60 0.72 0.67 0.62 0.60 0.59 0.56 0.51 0.48 0.49 0.43 0.42 0.43 0.43 0.52 0.59 0.66 0.67 0.67 0.57 0.48 0.41 0.33 0.30 0.28 0.25 0.19 0.17 0.17 0.15
0.03 0.03 0.04 0.07 0.13 0.20 0.25 0.26 0.23 0.23 0.29 0.31 0.30 0.38 0.55 0.70 0.78 0.71 0.58 0.51 0.47 0.43 0.42 0.39 0.35 0.38 0.40 0.42 0.49 0.58 0.63 0.63 0.64 0.58 0.48 0.40 0.33 0.30 0.28 0.25 0.22 0.19 0.17 0.14
0.04 0.06 0.08 0.12 0.20 0.30 0.36 0.38 0.39 0.41 0.48 0.53 0.51 0.55 0.63 0.65 0.68 0.67 0.58 0.48 0.41 0.41 0.40 0.38 0.34 0.33 0.36 0.43 0.47 0.55 0.62 0.62 0.58 0.52 0.42 0.36 0.30 0.28 0.28 0.25 0.22 0.20 0.16 0.13
0.07 0.10 0.15 0.19 0.26 0.35 0.42 0.49 0.56 0.61 0.70 0.79 0.85 0.79 0.78 0.77 0.72 0.63 0.52 0.43 0.37 0.36 0.36 0.35 0.32 0.29 0.33 0.39 0.46 0.53 0.53 0.53 0.49 0.44 0.42 0.37 0.33 0.32 0.31 0.26 0.22 0.18 0.14 0.13

GEFSNGP_prec_meanprecacc_090.txt.gz
Total_Precipitation_Accumulation
0.02 0.03 0.06 0.09 0.09 0.08 0.08 0.14 0.25 0.19 0.17 0.19 0.20 0.20 0.24 0.25 0.21 0.17 0.16 0.14 0.15 0.18 0.21 0.25 0.25 0.22 0.19 0.17 0.17 0.23 0.28 0.35 0.44 0.39 0.33 0.30 0.27 0.21 0.19 0.24 0.29 0.42 0.51 0.56
0.01 0.03 0.06 0.08 0.11 0.08 0.06 0.06 0.09 0.12 0.17 0.18 0.18 0.19 0.20 0.19 0.17 0.16 0.16 0.13 0.12 0.14 0.17 0.19 0.16 0.11 0.08 0.08 0.11 0.18 0.24 0.29 0.36 0.35 0.28 0.23 0.19 0.14 0.14 0.20 0.27 0.35 0.39 0.44
0.01 0.03 0.04 0.11 0.11 0.07 0.04 0.03 0.04 0.13 0.21 0.19 0.20 0.19 0.18 0.16 0.14 0.12 0.10 0.08 0.07 0.06 0.06 0.05 0.05 0.04 0.05 0.06 0.07 0.15 0.24 0.32 0.37 0.42 0.41 0.31 0.18 0.15 0.18 0.24 0.32 0.37 0.35 0.36
0.01 0.03 0.14 0.12 0.05 0.04 0.04 0.03 0.03 0.06 0.09 0.10 0.09 0.07 0.06 0.06 0.05 0.03 0.03 0.03 0.03 0.02 0.02 0.02 0.02 0.04 0.07 0.06 0.08 0.13 0.23 0.31 0.34 0.38 0.40 0.36 0.30 0.29 0.32 0.38 0.44 0.45 0.40 0.38
0.02 0.03 0.10 0.06 0.05 0.05 0.06 0.04 0.03 0.04 0.04 0.04 0.04 0.04 0.06 0.03 0.02 0.01 0.01 0.01 0.01 0.02 0.01 0.02 0.02 0.06 0.11 0.12 0.15 0.20 0.30 0.39 0.40 0.42 0.42 0.37 0.34 0.38 0.42 0.48 0.49 0.49 0.44 0.42
0.04 0.06 0.10 0.07 0.07 0.08 0.06 0.11 0.08 0.05 0.04 0.03 0.02 0.08 0.10 0.04 0.01 0.01 0.01 0.01 0.02 0.02 0.03 0.04 0.07 0.11 0.16 0.22 0.27 0.35 0.44 0.50 0.49 0.53 0.56 0.51 0.52 0.53 0.53 0.56 0.52 0.47 0.46 0.49
0.07 0.09 0.10 0.07 0.07 0.06 0.09 0.16 0.04 0.02 0.01 0.01 0.02 0.05 0.05 0.02 0.01 0.01 0.01 0.02 0.03 0.04 0.04 0.07 0.10 0.14 0.24 0.29 0.33 0.37 0.40 0.48 0.55 0.61 0.68 0.72 0.77 0.73 0.69 0.65 0.63 0.57 0.53 0.54
0.09 0.14 0.14 0.05 0.02 0.03 0.05 0.02 0.01 0.01 0.01 0.02 0.02 0.01 0.01 0.01 0.01 0.01 0.02 0.03 0.04 0.06 0.06 0.08 0.11 0.18 0.25 0.29 0.32 0.36 0.41 0.50 0.57 0.63 0.63 0.73 0.97 0.97 0.98 0.93 0.81 0.73 0.69 0.63
0.04 0.05 0.02 0.01 0.01 0.01 0.01 0.02 0.02 0.02 0.01 0.02 0.02 0.02 0.02 0.02 0.02 0.02 0.02 0.03 0.05 0.09 0.11 0.14 0.18 0.29 0.41 0.38 0.39 0.44 0.50 0.57 0.61 0.62 0.70 0.84 0.98 1.02 1.06 1.02 0.90 0.82 0.80 0.77
0.03 0.01 0.01 0.01 0.01 0.01 0.01 0.01 0.01 0.01 0.01 0.02 0.03 0.03 0.03 0.03 0.03 0.04 0.04 0.06 0.09 0.14 0.21 0.29 0.34 0.41 0.51 0.48 0.49 0.54 0.57 0.60 0.63 0.68 0.72 0.80 0.96 0.98 0.98 0.95 0.93 0.90 0.88 0.84
0.03 0.02 0.01 0.02 0.02 0.01 0.01 0.01 0.01 0.01 0.02 0.02 0.03 0.04 0.04 0.04 0.05 0.05 0.06 0.07 0.13 0.22 0.31 0.39 0.47 0.53 0.57 0.61 0.67 0.71 0.66 0.64 0.68 0.73 0.78 0.85 0.92 0.97 0.93 0.88 0.79 0.81 0.84 0.82
0.04 0.04 0.05 0.05 0.03 0.01 0.01 0.01 0.01 0.02 0.02 0.03 0.04 0.05 0.05 0.05 0.05 0.05 0.07 0.08 0.14 0.21 0.31 0.40 0.49 0.56 0.61 0.71 0.84 0.92 0.91 0.81 0.81 0.84 0.88 0.94 0.94 0.85 0.71 0.64 0.51 0.49 0.53 0.58
0.05 0.04 0.04 0.03 0.02 0.02 0.02 0.01 0.02 0.02 0.03 0.03 0.04 0.05 0.05 0.05 0.05 0.06 0.08 0.11 0.17 0.24 0.32 0.38 0.44 0.54 0.65 0.78 0.87 0.92 0.95 0.94 0.90 0.92 0.96 0.96 0.98 0.94 0.84 0.70 0.55 0.46 0.42 0.46
0.03 0.02 0.02 0.01 0.01 0.01 0.01 0.01 0.02 0.03 0.04 0.05 0.05 0.06 0.07 0.07 0.08 0.09 0.11 0.14 0.18 0.25 0.33 0.40 0.47 0.53 0.64 0.76 0.86 0.89 0.89 0.88 0.88 0.93 0.95 0.92 0.91 0.92 0.97 0.91 0.80 0.65 0.48 0.46
0.02 0.03 0.03 0.02 0.02 0.03 0.03 0.04 0.05 0.05 0.05 0.05 0.05 0.06 0.07 0.08 0.09 0.11 0.12 0.16 0.22 0.26 0.32 0.42 0.54 0.60 0.68 0.77 0.82 0.86 0.89 0.89 0.89 0.87 0.87 0.89 0.87 0.86 0.89 0.95 0.90 0.80 0.65 0.57
0.05 0.05 0.06 0.06 0.06 0.06 0.07 0.07 0.08 0.08 0.07 0.07 0.07 0.08 0.09 0.10 0.10 0.11 0.14 0.20 0.29 0.35 0.43 0.53 0.57 0.63 0.77 0.86 0.89 0.90 0.92 0.92 0.95 0.92 0.82 0.82 0.85 0.88 0.88 0.92 0.91 0.81 0.69 0.59
0.11 0.11 0.11 0.10 0.10 0.10 0.10 0.11 0.12 0.12 0.11 0.11 0.10 0.10 0.11 0.13 0.14 0.16 0.18 0.22 0.30 0.35 0.46 0.59 0.59 0.62 0.77 0.91 0.99 1.00 0.93 0.87 0.88 0.90 0.83 0.73 0.75 0.81 0.82 0.82 0.78 0.69 0.59 0.48
0.13 0.15 0.16 0.17 0.17 0.16 0.15 0.16 0.17 0.18 0.18 0.17 0.15 0.15 0.18 0.22 0.24 0.25 0.26 0.29 0.34 0.35 0.38 0.46 0.56 0.64 0.73 0.85 0.93 0.98 0.97 0.93 0.87 0.85 0.82 0.73 0.69 0.72 0.75 0.72 0.62 0.55 0.50 0.41
0.12 0.15 0.17 0.19 0.21 0.23 0.24 0.26 0.28 0.28 0.27 0.26 0.27 0.27 0.28 0.29 0.32 0.34 0.35 0.41 0.52 0.57 0.51 0.50 0.58 0.61 0.68 0.80 0.91 0.91 0.94 0.98 0.91 0.77 0.74 0.73 0.66 0.67 0.60 0.54 0.50 0.47 0.43 0.39
0.17 0.21 0.24 0.28 0.31 0.36 0.38 0.39 0.39 0.40 0.38 0.38 0.37 0.38 0.38 0.37 0.40 0.44 0.47 0.51 0.61 0.71 0.68 0.64 0.58 0.55 0.63 0.78 0.90 0.85 0.82 0.87 0.84 0.72 0.70 0.73 0.65 0.57 0.46 0.43 0.40 0.39 0.40 0.38
0.23 0.28 0.32 0.35 0.37 0.39 0.42 0.45 0.46 0.44 0.42 0.40 0.42 0.43 0.43 0.41 0.41 0.51 0.65 0.68 0.62 0.67 0.68 0.66 0.59 0.56 0.59 0.76 0.82 0.82 0.77 0.74 0.75 0.69 0.63 0.62 0.58 0.50 0.41 0.40 0.37 0.34 0.33 0.31
0.23 0.26 0.30 0.32 0.32 0.31 0.30 0.32 0.33 0.33 0.32 0.32 0.35 0.38 0.44 0.46 0.44 0.50 0.58 0.69 0.71 0.74 0.67 0.64 0.61 0.58 0.57 0.66 0.72 0.79 0.80 0.73 0.69 0.62 0.57 0.51 0.49 0.45 0.37 0.35 0.30 0.23 0.23 0.24
0.14 0.15 0.16 0.17 0.18 0.17 0.15 0.16 0.21 0.26 0.28 0.29 0.32 0.41 0.54 0.56 0.56 0.66 0.65 0.59 0.67 0.68 0.63 0.60 0.58 0.56 0.51 0.53 0.63 0.71 0.76 0.73 0.69 0.59 0.50 0.46 0.40 0.35 0.31 0.26 0.20 0.17 0.18 0.19
0.04 0.05 0.06 0.07 0.09 0.11 0.13 0.14 0.17 0.21 0.24 0.27 0.29 0.39 0.60 0.72 0.67 0.62 0.61 0.60 0.57 0.52 0.50 0.50 0.44 0.43 0.44 0.44 0.53 0.60 0.66 0.67 0.67 0.57 0.48 0.42 0.34 0.31 0.29 0.25 0.19 0.17 0.18 0.16
0.03 0.03 0.04 0.07 0.13 0.20 0.25 0.26 0.23 0.23 0.29 0.31 0.30 0.38 0.55 0.70 0.79 0.71 0.59 0.52 0.49 0.44 0.44 0.41 0.37 0.40 0.41 0.43 0.50 0.58 0.64 0.63 0.64 0.58 0.49 0.41 0.33 0.30 0.29 0.26 0.22 0.20 0.17 0.15
0.04 0.06 0.08 0.12 0.20 0.30 0.36 0.38 0.39 0.41 0.48 0.53 0.52 0.55 0.63 0.66 0.69 0.68 0.60 0.50 0.44 0.44 0.43 0.41 0.37 0.36 0.38 0.44 0.48 0.55 0.62 0.62 0.59 0.53 0.42 0.36 0.30 0.29 0.30 0.26 0.22 0.21 0.16 0.13
0.07 0.10 0.15 0.19 0.26 0.36 0.42 0.49 0.56 0.61 0.70 0.80 0.86 0.80 0.79 0.78 0.73 0.64 0.54 0.45 0.39 0.38 0.39 0.37 0.34 0.31 0.35 0.40 0.47 0.53 0.54 0.53 0.49 0.45 0.42 0.37 0.33 0.33 0.33 0.28 0.23 0.19 0.14 0.13

GEFSNGP_prec_meanprecacc_096.txt.gz
Total_Precipitation_Accumulation
0.02 0.03 0.06 0.09 0.09 0.08 0.08 0.14 0.25 0.19 0.17 0.19 0.20 0.20 0.24 0.25 0.21 0.17 0.16 0.14 0.15 0.18 0.21 0.25 0.25 0.22 0.19 0.17 0.17 0.23 0.28 0.35 0.44 0.39 0.33 0.31 0.28 0.21 0.19 0.24 0.29 0.42 0.51 0.56
0.01 0.03 0.06 0.08 0.11 0.08 0.06 0.06 0.09 0.12 0.17 0.18 0.18 0.19 0.20 0.19 0.17 0.16 0.16 0.13 0.12 0.14 0.17 0.19 0.16 0.11 0.08 0.08 0.11 0.18 0.24 0.29 0.36 0.35 0.28 0.23 0.19 0.14 0.14 0.20 0.27 0.35 0.39 0.44
0.01 0.03 0.04 0.11 0.11 0.07 0.04 0.03 0.04 0.13 0.21 0.19 0.20 0.19 0.18 0.16 0.14 0.12 0.10 0.08 0.07 0.06 0.06 0.05 0.05 0.04 0.05 0.06 0.07 0.15 0.24 0.32 0.37 0.42 0.42 0.31 0.18 0.15 0.18 0.24 0.32 0.37 0.36 0.36
0.01 0.03 0.14 0.12 0.05 0.04 0.04 0.03 0.03 0.06 0.09 0.10 0.09 0.07 0.06 0.06 0.05 0.03 0.03 0.03 0.03 0.02 0.02 0.02 0.02 0.04 0.07 0.06 0.08 0.13 0.23 0.31 0.34 0.38 0.40 0.36 0.31 0.29 0.32 0.38 0.44 0.46 0.40 0.39
0.02 0.03 0.10 0.06 0.05 0.05 0.06 0.04 0.03 0.04 0.04 0.04 0.04 0.04 0.06 0.03 0.02 0.01 0.01 0.01 0.01 0.02 0.01 0.02 0.02 0.06 0.11 0.12 0.15 0.20 0.30 0.39 0.40 0.42 0.42 0.37 0.34 0.38 0.42 0.48 0.49 0.49 0.44 0.42
0.05 0.07 0.11 0.07 0.07 0.09 0.06 0.11 0.08 0.05 0.04 0.03 0.02 0.08 0.10 0.04 0.01 0.01 0.01 0.01 0.02 0.02 0.03 0.04 0.07 0.11 0.16 0.22 0.27 0.35 0.44 0.50 0.49 0.53 0.56 0.52 0.52 0.53 0.53 0.57 0.52 0.48 0.46 0.49
0.09 0.11 0.10 0.08 0.07 0.06 0.09 0.16 0.04 0.02 0.01 0.01 0.02 0.05 0.05 0.02 0.01 0.01 0.01 0.02 0.03 0.04 0.04 0.07 0.10 0.14 0.24 0.29 0.33 0.37 0.40 0.48 0.55 0.61 0.69 0.72 0.77 0.73 0.70 0.65 0.63 0.58 0.53 0.54
0.12 0.17 0.15 0.05 0.03 0.04 0.05 0.02 0.01 0.01 0.01 0.02 0.02 0.01 0.01 0.01 0.01 0.01 0.02 0.03 0.04 0.06 0.06 0.08 0.11 0.18 0.25 0.29 0.32 0.36 0.41 0.50 0.57 0.63 0.63 0.73 0.98 0.98 0.98 0.93 0.81 0.73 0.70 0.63
0.05 0.06 0.03 0.01 0.01 0.01 0.01 0.02 0.02 0.02 0.02 0.02 0.02 0.02 0.02 0.02 0.02 0.02 0.02 0.03 0.05 0.09 0.11 0.14 0.18 0.29 0.41 0.38 0.39 0.44 0.50 0.57 0.61 0.63 0.70 0.84 0.98 1.02 1.07 1.03 0.91 0.83 0.81 0.77
0.03 0.01 0.01 0.01 0.01 0.01 0.01 0.01 0.01 0.01 0.01 0.02 0.03 0.03 0.03 0.03 0.03 0.04 0.04 0.06 0.09 0.14 0.21 0.29 0.34 0.41 0.51 0.48 0.49 0.55 0.57 0.60 0.63 0.69 0.72 0.81 0.97 0.98 0.98 0.95 0.93 0.90 0.88 0.85
0.04 0.02 0.02 0.02 0.02 0.01 0.01 0.01 0.01 0.01 0.02 0.02 0.03 0.04 0.04 0.04 0.05 0.05 0.06 0.07 0.13 0.22 0.31 0.39 0.47 0.53 0.57 0.61 0.67 0.71 0.67 0.64 0.68 0.73 0.79 0.85 0.92 0.97 0.93 0.88 0.79 0.81 0.84 0.82
0.04 0.05 0.06 0.05 0.03 0.02 0.01 0.02 0.02 0.02 0.03 0.03 0.04 0.05 0.05 0.05 0.05 0.06 0.07 0.09 0.14 0.21 0.31 0.40 0.49 0.56 0.61 0.71 0.84 0.92 0.91 0.81 0.81 0.84 0.88 0.94 0.95 0.85 0.71 0.64 0.51 0.49 0.53 0.58
0.05 0.04 0.04 0.03 0.02 0.02 0.02 0.02 0.02 0.03 0.03 0.04 0.04 0.05 0.05 0.05 0.06 0.06 0.08 0.11 0.17 0.24 0.32 0.38 0.44 0.55 0.65 0.78 0.87 0.92 0.95 0.94 0.90 0.92 0.96 0.96 0.98 0.94 0.85 0.70 0.55 0.47 0.42 0.46
0.03 0.03 0.02 0.02 0.02 0.01 0.01 0.02 0.02 0.03 0.04 0.05 0.06 0.07 0.07 0.08 0.08 0.09 0.11 0.14 0.19 0.25 0.33 0.40 0.47 0.53 0.64 0.76 0.86 0.89 0.89 0.88 0.88 0.93 0.95 0.92 0.91 0.93 0.98 0.91 0.80 0.67 0.50 0.47
0.03 0.03 0.03 0.03 0.02 0.03 0.04 0.05 0.05 0.06 0.06 0.06 0.06 0.07 0.07 0.08 0.10 0.11 0.13 0.17 0.22 0.27 0.32 0.42 0.54 0.60 0.68 0.77 0.82 0.86 0.90 0.89 0.89 0.87 0.87 0.89 0.87 0.86 0.90 0.95 0.92 0.82 0.67 0.59
0.05 0.06 0.06 0.06 0.06 0.07 0.07 0.08 0.09 0.09 0.09 0.08 0.08 0.08 0.09 0.10 0.11 0.11 0.14 0.20 0.29 0.35 0.43 0.53 0.57 0.63 0.77 0.86 0.89 0.90 0.93 0.92 0.95 0.92 0.83 0.82 0.85 0.88 0.89 0.94 0.94 0.84 0.72 0.61
0.11 0.11 0.12 0.11 0.10 0.10 0.11 0.12 0.13 0.13 0.12 0.12 0.11 0.11 0.12 0.13 0.15 0.16 0.18 0.22 0.30 0.35 0.46 0.59 0.60 0.63 0.77 0.91 0.99 1.00 0.93 0.87 0.88 0.90 0.83 0.73 0.76 0.82 0.83 0.85 0.80 0.72 0.62 0.50
0.14 0.16 0.17 0.18 0.17 0.16 0.16 0.17 0.18 0.19 0.19 0.18 0.16 0.16 0.19 0.23 0.25 0.25 0.26 0.30 0.34 0.36 0.39 0.47 0.56 0.64 0.74 0.85 0.94 0.98 0.98 0.93 0.88 0.85 0.82 0.74 0.70 0.73 0.76 0.74 0.65 0.57 0.52 0.43
0.13 0.15 0.17 0.19 0.21 0.23 0.25 0.27 0.28 0.29 0.28 0.27 0.28 0.28 0.29 0.30 0.32 0.35 0.36 0.42 0.52 0.58 0.51 0.50 0.58 0.61 0.69 0.80 0.92 0.91 0.94 0.98 0.91 0.77 0.74 0.73 0.67 0.69 0.62 0.57 0.52 0.48 0.45 0.42
0.17 0.21 0.24 0.28 0.31 0.36 0.39 0.39 0.40 0.40 0.39 0.38 0.38 0.38 0.38 0.37 0.40 0.44 0.48 0.52 0.61 0.71 0.68 0.64 0.58 0.55 0.63 0.79 0.90 0.85 0.82 0.87 0.84 0.73 0.70 0.74 0.67 0.59 0.48 0.45 0.42 0.41 0.42 0.40
0.23 0.28 0.32 0.35 0.37 0.40 0.42 0.45 0.46 0.45 0.42 0.41 0.42 0.43 0.43 0.41 0.41 0.51 0.65 0.68 0.62 0.67 0.68 0.66 0.59 0.57 0.59 0.76 0.83 0.82 0.77 0.75 0.75 0.69 0.64 0.63 0.60 0.53 0.43 0.43 0.40 0.36 0.34 0.33
0.23 0.26 0.30 0.32 0.32 0.31 0.30 0.32 0.33 0.33 0.32 0.32 0.35 0.38 0.44 0.46 0.45 0.50 0.58 0.69 0.71 0.74 0.67 0.64 0.61 0.59 0.57 0.67 0.72 0.79 0.80 0.73 0.69 0.62 0.58 0.53 0.51 0.48 0.40 0.37 0.32 0.25 0.24 0.26
0.14 0.15 0.16 0.18 0.18 0.17 0.15 0.16 0.21 0.26 0.28 0.29 0.32 0.41 0.54 0.56 0.56 0.66 0.65 0.59 0.67 0.68 0.63 0.60 0.59 0.56 0.51 0.53 0.64 0.71 0.77 0.73 0.69 0.59 0.52 0.47 0.41 0.37 0.33 0.28 0.23 0.19 0.20 0.21
0.04 0.05 0.06 0.07 0.09 0.11 0.13 0.14 0.17 0.21 0.24 0.27 0.29 0.39 0.60 0.72 0.67 0.62 0.61 0.60 0.57 0.52 0.50 0.50 0.45 0.43 0.44 0.44 0.53 0.60 0.67 0.68 0.68 0.58 0.49 0.42 0.35 0.32 0.31 0.27 0.22 0.19 0.19 0.17
0.03 0.03 0.04 0.07 0.13 0.20 0.26 0.26 0.24 0.23 0.29 0.31 0.30 0.38 0.55 0.70 0.79 0.71 0.59 0.52 0.49 0.44 0.44 0.41 0.37 0.40 0.42 0.44 0.51 0.59 0.64 0.64 0.65 0.59 0.49 0.42 0.35 0.32 0.32 0.29 0.25 0.21 0.18 0.15
0.04 0.06 0.08 0.12 0.20 0.30 0.36 0.38 0.39 0.41 0.48 0.53 0.52 0.55 0.63 0.66 0.70 0.69 0.60 0.50 0.44 0.45 0.44 0.42 0.38 0.37 0.40 0.47 0.50 0.57 0.64 0.63 0.60 0.54 0.43 0.38 0.31 0.29 0.31 0.29 0.24 0.22 0.17 0.14
0.07 0.10 0.15 0.19 0.26 0.36 0.42 0.49 0.56 0.62 0.70 0.80 0.86 0.80 0.79 0.79 0.74 0.65 0.55 0.46 0.40 0.40 0.41 0.39 0.36 0.33 0.37 0.44 0.50 0.57 0.57 0.56 0.51 0.46 0.43 0.39 0.35 0.34 0.34 0.30 0.25 0.20 0.15 0.14

GEFSNGP_prec_meanprecacc_102.txt.gz
Total_Precipitation_Accumulation
0.03 0.05 0.08 0.13 0.10 0.08 0.09 0.14 0.26 0.20 0.18 0.20 0.20 0.20 0.24 0.25 0.21 0.17 0.16 0.14 0.15 0.18 0.21 0.25 0.25 0.22 0.19 0.17 0.17 0.23 0.28 0.35 0.44 0.39 0.33 0.31 0.28 0.21 0.20 0.24 0.29 0.43 0.51 0.57
0.01 0.04 0.06 0.09 0.11 0.08 0.06 0.06 0.09 0.12 0.18 0.19 0.18 0.19 0.20 0.19 0.17 0.16 0.16 0.13 0.12 0.14 0.17 0.19 0.16 0.11 0.08 0.08 0.11 0.18 0.24 0.29 0.36 0.35 0.28 0.23 0.19 0.14 0.14 0.20 0.28 0.36 0.39 0.45
0.02 0.03 0.05 0.11 0.11 0.07 0.04 0.03 0.04 0.13 0.21 0.20 0.20 0.19 0.18 0.16 0.14 0.12 0.10 0.08 0.07 0.06 0.06 0.05 0.05 0.04 0.05 0.06 0.07 0.15 0.24 0.32 0.37 0.42 0.42 0.31 0.18 0.16 0.19 0.25 0.33 0.38 0.37 0.37
0.02 0.05 0.16 0.13 0.06 0.04 0.04 0.03 0.03 0.06 0.09 0.10 0.09 0.07 0.06 0.06 0.05 0.03 0.03 0.03 0.03 0.02 0.02 0.02 0.02 0.04 0.07 0.06 0.08 0.13 0.23 0.31 0.34 0.38 0.40 0.36 0.31 0.29 0.32 0.39 0.45 0.47 0.41 0.40
0.03 0.05 0.11 0.07 0.06 0.06 0.06 0.05 0.03 0.04 0.04 0.04 0.04 0.04 0.06 0.03 0.02 0.01 0.01 0.01 0.01 0.02 0.01 0.02 0.02 0.06 0.11 0.12 0.15 0.20 0.30 0.39 0.40 0.42 0.42 0.37 0.35 0.39 0.43 0.49 0.50 0.50 0.45 0.43
0.06 0.09 0.13 0.10 0.10 0.10 0.06 0.12 0.08 0.05 0.04 0.03 0.02 0.08 0.11 0.05 0.01 0.01 0.02 0.02 0.02 0.02 0.03 0.04 0.07 0.11 0.16 0.22 0.27 0.35 0.44 0.50 0.49 0.53 0.56 0.52 0.52 0.54 0.53 0.57 0.53 0.49 0.47 0.51
0.10 0.13 0.14 0.13 0.13 0.10 0.13 0.19 0.04 0.02 0.01 0.01 0.02 0.05 0.05 0.03 0.01 0.01 0.01 0.02 0.03 0.04 0.04 0.07 0.10 0.14 0.24 0.29 0.33 0.37 0.40 0.48 0.55 0.62 0.69 0.73 0.77 0.74 0.70 0.66 0.64 0.59 0.54 0.56
0.15 0.22 0.21 0.10 0.07 0.11 0.12 0.05 0.02 0.02 0.02 0.02 0.02 0.01 0.01 0.01 0.01 0.01 0.02 0.03 0.04 0.06 0.06 0.08 0.11 0.18 0.25 0.29 0.32 0.36 0.41 0.50 0.57 0.63 0.64 0.73 0.98 0.98 0.99 0.95 0.83 0.75 0.72 0.65
0.13 0.16 0.09 0.06 0.05 0.06 0.05 0.02 0.02 0.03 0.03 0.03 0.02 0.02 0.02 0.02 0.02 0.02 0.02 0.03 0.05 0.09 0.11 0.14 0.18 0.29 0.41 0.38 0.39 0.44 0.50 0.57 0.62 0.63 0.70 0.85 0.98 1.03 1.08 1.05 0.92 0.83 0.82 0.78
0.11 0.09 0.10 0.06 0.04 0.03 0.02 0.02 0.01 0.01 0.01 0.02 0.03 0.03 0.03 0.03 0.03 0.04 0.05 0.06 0.09 0.14 0.21 0.29 0.34 0.41 0.51 0.48 0.49 0.55 0.57 0.60 0.64 0.69 0.72 0.81 0.97 0.99 0.98 0.95 0.93 0.90 0.89 0.86
0.15 0.10 0.07 0.05 0.05 0.03 0.01 0.01 0.01 0.01 0.02 0.03 0.04 0.04 0.04 0.05 0.05 0.06 0.06 0.07 0.13 0.22 0.31 0.39 0.47 0.53 0.57 0.61 0.67 0.71 0.67 0.64 0.68 0.73 0.79 0.86 0.92 0.98 0.93 0.88 0.79 0.82 0.84 0.83
0.15 0.12 0.16 0.11 0.05 0.03 0.02 0.02 0.02 0.02 0.03 0.04 0.04 0.05 0.05 0.05 0.05 0.06 0.07 0.09 0.14 0.22 0.31 0.40 0.49 0.56 0.61 0.71 0.84 0.92 0.91 0.81 0.81 0.85 0.88 0.95 0.95 0.86 0.72 0.64 0.51 0.49 0.53 0.58
0.08 0.06 0.08 0.07 0.03 0.02 0.02 0.02 0.02 0.03 0.03 0.04 0.05 0.05 0.05 0.06 0.06 0.06 0.08 0.11 0.17 0.24 0.32 0.38 0.44 0.55 0.65 0.78 0.87 0.92 0.96 0.95 0.90 0.92 0.96 0.97 0.98 0.95 0.87 0.71 0.56 0.47 0.43 0.46
0.06 0.03 0.02 0.02 0.02 0.01 0.01 0.02 0.02 0.03 0.04 0.05 0.06 0.07 0.08 0.08 0.08 0.09 0.12 0.14 0.19 0.26 0.34 0.40 0.47 0.53 0.64 0.77 0.86 0.89 0.89 0.88 0.89 0.93 0.96 0.93 0.92 0.94 0.99 0.92 0.82 0.70 0.53 0.49
0.04 0.03 0.03 0.03 0.02 0.03 0.04 0.05 0.05 0.06 0.06 0.06 0.06 0.07 0.08 0.09 0.10 0.11 0.13 0.17 0.22 0.27 0.32 0.42 0.54 0.60 0.69 0.78 0.83 0.87 0.90 0.89 0.90 0.88 0.88 0.89 0.88 0.87 0.91 0.96 0.95 0.85 0.70 0.62
0.06 0.06 0.06 0.06 0.06 0.07 0.08 0.09 0.09 0.09 0.09 0.09 0.09 0.09 0.10 0.10 0.11 0.12 0.14 0.20 0.29 0.36 0.43 0.53 0.58 0.63 0.77 0.87 0.90 0.91 0.93 0.92 0.95 0.92 0.83 0.82 0.86 0.89 0.90 0.95 0.97 0.88 0.76 0.64
0.11 0.12 0.12 0.11 0.11 0.11 0.11 0.12 0.13 0.13 0.13 0.12 0.12 0.11 0.12 0.14 0.15 0.17 0.19 0.23 0.30 0.35 0.46 0.59 0.60 0.63 0.77 0.92 1.00 1.01 0.94 0.88 0.89 0.91 0.84 0.74 0.77 0.83 0.84 0.86 0.83 0.76 0.67 0.54
0.14 0.16 0.17 0.18 0.18 0.17 0.16 0.17 0.19 0.19 0.19 0.18 0.16 0.17 0.19 0.23 0.25 0.26 0.27 0.30 0.34 0.36 0.39 0.47 0.56 0.64 0.74 0.86 0.96 1.01 0.99 0.94 0.88 0.86 0.83 0.75 0.71 0.75 0.78 0.77 0.68 0.61 0.56 0.46
0.13 0.16 0.18 0.19 0.21 0.23 0.25 0.27 0.28 0.29 0.28 0.28 0.28 0.29 0.29 0.30 0.32 0.35 0.36 0.42 0.53 0.59 0.53 0.51 0.59 0.61 0.69 0.82 0.93 0.93 0.95 0.99 0.92 0.78 0.75 0.75 0.69 0.70 0.64 0.60 0.55 0.52 0.48 0.44
0.17 0.21 0.24 0.28 0.31 0.36 0.39 0.39 0.40 0.40 0.39 0.38 0.38 0.38 0.38 0.38 0.40 0.44 0.48 0.52 0.62 0.71 0.69 0.65 0.59 0.56 0.64 0.80 0.91 0.86 0.82 0.87 0.85 0.74 0.72 0.75 0.69 0.61 0.50 0.47 0.45 0.45 0.45 0.42
0.23 0.28 0.32 0.35 0.37 0.40 0.42 0.45 0.46 0.45 0.42 0.41 0.42 0.43 0.44 0.41 0.42 0.51 0.65 0.69 0.62 0.68 0.68 0.66 0.59 0.57 0.59 0.77 0.83 0.82 0.77 0.75 0.76 0.70 0.66 0.65 0.62 0.56 0.46 0.46 0.44 0.41 0.38 0.36
0.23 0.27 0.30 0.32 0.32 0.31 0.30 0.32 0.33 0.33 0.32 0.32 0.35 0.38 0.44 0.46 0.45 0.50 0.58 0.69 0.72 0.74 0.67 0.64 0.61 0.59 0.57 0.67 0.72 0.79 0.80 0.73 0.70 0.63 0.60 0.56 0.56 0.53 0.45 0.41 0.37 0.30 0.30 0.31
0.14 0.15 0.16 0.18 0.18 0.17 0.15 0.16 0.21 0.26 0.28 0.29 0.32 0.41 0.54 0.57 0.57 0.66 0.65 0.59 0.67 0.68 0.63 0.60 0.59 0.56 0.51 0.53 0.64 0.71 0.77 0.74 0.70 0.61 0.54 0.50 0.46 0.42 0.37 0.32 0.26 0.23 0.24 0.25
0.04 0.05 0.06 0.07 0.09 0.11 0.13 0.14 0.17 0.21 0.24 0.27 0.29 0.39 0.60 0.72 0.67 0.62 0.61 0.60 0.57 0.52 0.50 0.50 0.45 0.43 0.44 0.44 0.54 0.61 0.68 0.70 0.70 0.62 0.53 0.47 0.39 0.36 0.35 0.32 0.25 0.22 0.23 0.21
0.03 0.03 0.04 0.07 0.13 0.20 0.26 0.26 0.24 0.23 0.29 0.32 0.31 0.39 0.55 0.70 0.79 0.71 0.59 0.52 0.49 0.44 0.44 0.41 0.38 0.40 0.42 0.45 0.52 0.61 0.68 0.68 0.68 0.63 0.54 0.47 0.39 0.37 0.37 0.34 0.30 0.25 0.22 0.18
0.04 0.06 0.08 0.12 0.20 0.30 0.36 0.38 0.39 0.41 0.48 0.54 0.52 0.55 0.63 0.66 0.70 0.69 0.60 0.51 0.45 0.45 0.45 0.43 0.39 0.39 0.42 0.49 0.53 0.59 0.67 0.67 0.63 0.58 0.48 0.43 0.36 0.35 0.37 0.33 0.27 0.25 0.20 0.15
0.07 0.10 0.15 0.19 0.26 0.36 0.42 0.49 0.56 0.62 0.70 0.80 0.86 0.80 0.80 0.79 0.74 0.65 0.55 0.46 0.41 0.40 0.42 0.40 0.37 0.34 0.38 0.46 0.53 0.60 0.61 0.60 0.55 0.50 0.48 0.44 0.39 0.38 0.38 0.32 0.27 0.23 0.17 0.15